Wetterdaten: Montag, 29.05.2023
Datum Zeit Temp. Aussen Temp. o. S. Temp +5cm Feuchte Auss Luftdruck Regen Sonnenschein Regendauer Solar Windben Empfang
29.05.2023 00:00 17,4 C 16,7 C 12,8 C 63 % 1021,0 hPa 0,0 l/m 0 min 0 min 0 W/m 16,1 km/h (3 Bft) 97,83 %
29.05.2023 00:02 17,4 C 16,7 C 12,8 C 64 % 1021,1 hPa 0,0 l/m 0 min 0 min 0 W/m 12,9 km/h (3 Bft) 97,83 %
29.05.2023 00:04 17,4 C 16,7 C 12,8 C 63 % 1021,1 hPa 0,0 l/m 0 min 0 min 0 W/m 6,4 km/h (2 Bft) 95,83 %
29.05.2023 00:07 17,4 C 16,7 C 12,8 C 63 % 1021,1 hPa 0,0 l/m 0 min 0 min 0 W/m 12,9 km/h (3 Bft) 95,83 %
29.05.2023 00:08 17,4 C 16,7 C 12,8 C 64 % 1021,2 hPa 0,0 l/m 0 min 0 min 0 W/m 12,9 km/h (3 Bft) 96,84 %
29.05.2023 00:12 17,3 C 16,7 C 12,8 C 64 % 1021,2 hPa 0,0 l/m 0 min 0 min 0 W/m 12,9 km/h (3 Bft) 100,00 %
29.05.2023 00:14 17,3 C 16,7 C 12,8 C 64 % 1021,2 hPa 0,0 l/m 0 min 0 min 0 W/m 6,4 km/h (2 Bft) 100,00 %
29.05.2023 00:16 17,3 C 16,1 C 12,8 C 64 % 1021,2 hPa 0,0 l/m 0 min 0 min 0 W/m 19,3 km/h (3 Bft) 97,83 %
29.05.2023 00:18 17,3 C 16,1 C 12,8 C 64 % 1021,2 hPa 0,0 l/m 0 min 0 min 0 W/m 16,1 km/h (3 Bft) 95,74 %
29.05.2023 00:20 17,2 C 16,1 C 12,8 C 65 % 1021,2 hPa 0,0 l/m 0 min 0 min 0 W/m 9,7 km/h (2 Bft) 95,74 %
29.05.2023 00:22 17,2 C 16,1 C 12,8 C 65 % 1021,2 hPa 0,0 l/m 0 min 0 min 0 W/m 12,9 km/h (3 Bft) 97,87 %
29.05.2023 00:24 17,2 C 16,1 C 12,8 C 65 % 1021,2 hPa 0,0 l/m 0 min 0 min 0 W/m 12,9 km/h (3 Bft) 97,87 %
29.05.2023 00:26 17,1 C 16,1 C 12,8 C 65 % 1021,2 hPa 0,0 l/m 0 min 0 min 0 W/m 6,4 km/h (2 Bft) 95,74 %
29.05.2023 00:28 17,1 C 16,1 C 12,2 C 66 % 1021,2 hPa 0,0 l/m 0 min 0 min 0 W/m 6,4 km/h (2 Bft) 97,87 %
29.05.2023 00:30 17,1 C 16,1 C 12,2 C 66 % 1021,2 hPa 0,0 l/m 0 min 0 min 0 W/m 12,9 km/h (3 Bft) 100,00 %
29.05.2023 00:32 17,0 C 16,1 C 12,2 C 66 % 1021,2 hPa 0,0 l/m 0 min 0 min 0 W/m 12,9 km/h (3 Bft) 95,65 %
29.05.2023 00:34 16,9 C 16,1 C 12,2 C 66 % 1021,3 hPa 0,0 l/m 0 min 0 min 0 W/m 19,3 km/h (3 Bft) 95,74 %
29.05.2023 00:36 16,9 C 15,6 C 12,2 C 66 % 1021,3 hPa 0,0 l/m 0 min 0 min 0 W/m 9,7 km/h (2 Bft) 97,87 %
29.05.2023 00:38 16,8 C 15,6 C 12,2 C 66 % 1021,4 hPa 0,0 l/m 0 min 0 min 0 W/m 19,3 km/h (3 Bft) 97,87 %
29.05.2023 00:40 16,8 C 15,6 C 12,2 C 67 % 1021,3 hPa 0,0 l/m 0 min 0 min 0 W/m 12,9 km/h (3 Bft) 97,87 %
29.05.2023 00:42 16,8 C 15,6 C 12,2 C 66 % 1021,3 hPa 0,0 l/m 0 min 0 min 0 W/m 9,7 km/h (2 Bft) 97,87 %
29.05.2023 00:44 16,7 C 15,6 C 12,2 C 66 % 1021,3 hPa 0,0 l/m 0 min 0 min 0 W/m 19,3 km/h (3 Bft) 97,87 %
29.05.2023 00:46 16,6 C 15,6 C 12,2 C 66 % 1021,3 hPa 0,0 l/m 0 min 0 min 0 W/m 12,9 km/h (3 Bft) 95,65 %
29.05.2023 00:48 16,6 C 15,6 C 12,2 C 66 % 1021,3 hPa 0,0 l/m 0 min 0 min 0 W/m 9,7 km/h (2 Bft) 97,87 %
29.05.2023 00:50 16,5 C 15,6 C 11,7 C 66 % 1021,3 hPa 0,0 l/m 0 min 0 min 0 W/m 16,1 km/h (3 Bft) 97,87 %
29.05.2023 00:52 16,4 C 15,6 C 11,7 C 66 % 1021,3 hPa 0,0 l/m 0 min 0 min 0 W/m 16,1 km/h (3 Bft) 97,92 %
29.05.2023 00:54 16,4 C 15,6 C 11,7 C 66 % 1021,4 hPa 0,0 l/m 0 min 0 min 0 W/m 19,3 km/h (3 Bft) 97,87 %
29.05.2023 00:56 16,3 C 15,6 C 11,7 C 65 % 1021,3 hPa 0,0 l/m 0 min 0 min 0 W/m 12,9 km/h (3 Bft) 95,74 %
29.05.2023 00:58 16,3 C 15,6 C 11,7 C 65 % 1021,3 hPa 0,0 l/m 0 min 0 min 0 W/m 19,3 km/h (3 Bft) 95,74 %
29.05.2023 01:00 16,2 C 15,0 C 11,7 C 65 % 1021,3 hPa 0,0 l/m 0 min 0 min 0 W/m 19,3 km/h (3 Bft) 97,83 %
29.05.2023 01:02 16,2 C 15,0 C 11,7 C 66 % 1021,3 hPa 0,0 l/m 0 min 0 min 0 W/m 16,1 km/h (3 Bft) 93,62 %
29.05.2023 01:04 16,2 C 15,0 C 11,7 C 66 % 1021,3 hPa 0,0 l/m 0 min 0 min 0 W/m 16,1 km/h (3 Bft) 97,87 %
29.05.2023 01:06 16,1 C 15,0 C 11,7 C 66 % 1021,4 hPa 0,0 l/m 0 min 0 min 0 W/m 6,4 km/h (2 Bft) 96,61 %
29.05.2023 01:08 16,1 C 15,0 C 11,7 C 67 % 1021,4 hPa 0,0 l/m 0 min 0 min 0 W/m 16,1 km/h (3 Bft) 97,14 %
29.05.2023 01:10 16,1 C 15,0 C 11,7 C 67 % 1021,4 hPa 0,0 l/m 0 min 0 min 0 W/m 12,9 km/h (3 Bft) 97,87 %
29.05.2023 01:12 16,1 C 15,0 C 11,7 C 68 % 1021,4 hPa 0,0 l/m 0 min 0 min 0 W/m 9,7 km/h (2 Bft) 97,87 %
29.05.2023 01:14 16,0 C 15,0 C 11,7 C 67 % 1021,4 hPa 0,0 l/m 0 min 0 min 0 W/m 6,4 km/h (2 Bft) 97,83 %
29.05.2023 01:16 16,0 C 15,0 C 11,7 C 68 % 1021,4 hPa 0,0 l/m 0 min 0 min 0 W/m 9,7 km/h (2 Bft) 97,87 %
29.05.2023 01:18 15,9 C 15,0 C 11,7 C 68 % 1021,5 hPa 0,0 l/m 0 min 0 min 0 W/m 19,3 km/h (3 Bft) 95,74 %
29.05.2023 01:20 15,9 C 15,0 C 11,7 C 68 % 1021,5 hPa 0,0 l/m 0 min 0 min 0 W/m 16,1 km/h (3 Bft) 97,96 %
29.05.2023 01:22 15,9 C 15,0 C 11,7 C 68 % 1021,5 hPa 0,0 l/m 0 min 0 min 0 W/m 12,9 km/h (3 Bft) 95,74 %
29.05.2023 01:24 15,8 C 15,0 C 11,1 C 68 % 1021,5 hPa 0,0 l/m 0 min 0 min 0 W/m 9,7 km/h (2 Bft) 97,87 %
29.05.2023 01:26 15,8 C 14,4 C 11,1 C 68 % 1021,5 hPa 0,0 l/m 0 min 0 min 0 W/m 9,7 km/h (2 Bft) 97,83 %
29.05.2023 01:28 15,7 C 14,4 C 11,1 C 68 % 1021,6 hPa 0,0 l/m 0 min 0 min 0 W/m 6,4 km/h (2 Bft) 97,87 %
29.05.2023 01:30 15,7 C 14,4 C 11,1 C 68 % 1021,6 hPa 0,0 l/m 0 min 0 min 0 W/m 16,1 km/h (3 Bft) 95,74 %
29.05.2023 01:32 15,7 C 14,4 C 11,1 C 68 % 1021,6 hPa 0,0 l/m 0 min 0 min 0 W/m 6,4 km/h (2 Bft) 92,86 %
29.05.2023 01:34 15,6 C 14,4 C 11,1 C 68 % 1021,6 hPa 0,0 l/m 0 min 0 min 0 W/m 22,5 km/h (4 Bft) 98,31 %
29.05.2023 01:36 15,6 C 14,4 C 11,1 C 68 % 1021,5 hPa 0,0 l/m 0 min 0 min 0 W/m 9,7 km/h (2 Bft) 94,29 %
29.05.2023 01:38 15,6 C 14,4 C 11,1 C 68 % 1021,5 hPa 0,0 l/m 0 min 0 min 0 W/m 16,1 km/h (3 Bft) 95,92 %
29.05.2023 01:40 15,6 C 14,4 C 11,1 C 69 % 1021,6 hPa 0,0 l/m 0 min 0 min 0 W/m 32,2 km/h (5 Bft) 93,48 %
29.05.2023 01:42 15,5 C 14,4 C 11,1 C 68 % 1021,5 hPa 0,0 l/m 0 min 0 min 0 W/m 9,7 km/h (2 Bft) 95,74 %
29.05.2023 01:44 15,5 C 14,4 C 11,1 C 69 % 1021,6 hPa 0,0 l/m 0 min 0 min 0 W/m 6,4 km/h (2 Bft) 95,74 %
29.05.2023 01:46 15,4 C 14,4 C 11,1 C 69 % 1021,5 hPa 0,0 l/m 0 min 0 min 0 W/m 12,9 km/h (3 Bft) 95,74 %
29.05.2023 01:48 15,4 C 14,4 C 11,1 C 69 % 1021,5 hPa 0,0 l/m 0 min 0 min 0 W/m 16,1 km/h (3 Bft) 95,74 %
29.05.2023 01:50 15,4 C 14,4 C 11,1 C 69 % 1021,6 hPa 0,0 l/m 0 min 0 min 0 W/m 6,4 km/h (2 Bft) 93,62 %
29.05.2023 01:52 15,4 C 14,4 C 11,1 C 69 % 1021,5 hPa 0,0 l/m 0 min 0 min 0 W/m 12,9 km/h (3 Bft) 95,74 %
29.05.2023 01:54 15,3 C 14,4 C 11,1 C 69 % 1021,5 hPa 0,0 l/m 0 min 0 min 0 W/m 9,7 km/h (2 Bft) 95,65 %
29.05.2023 01:56 15,3 C 14,4 C 11,1 C 70 % 1021,5 hPa 0,0 l/m 0 min 0 min 0 W/m 12,9 km/h (3 Bft) 93,62 %
29.05.2023 01:58 15,2 C 14,4 C 10,6 C 70 % 1021,4 hPa 0,0 l/m 0 min 0 min 0 W/m 6,4 km/h (2 Bft) 95,74 %
29.05.2023 02:00 15,2 C 14,4 C 10,6 C 70 % 1021,5 hPa 0,0 l/m 0 min 0 min 0 W/m 6,4 km/h (2 Bft) 95,74 %
29.05.2023 02:02 15,2 C 14,4 C 10,6 C 70 % 1021,4 hPa 0,0 l/m 0 min 0 min 0 W/m 9,7 km/h (2 Bft) 97,87 %
29.05.2023 02:04 15,1 C 14,4 C 10,6 C 70 % 1021,4 hPa 0,0 l/m 0 min 0 min 0 W/m 12,9 km/h (3 Bft) 97,92 %
29.05.2023 02:06 15,1 C 14,4 C 10,6 C 70 % 1021,4 hPa 0,0 l/m 0 min 0 min 0 W/m 12,9 km/h (3 Bft) 97,87 %
29.05.2023 02:08 15,1 C 13,9 C 10,6 C 70 % 1021,4 hPa 0,0 l/m 0 min 0 min 0 W/m 12,9 km/h (3 Bft) 97,83 %
29.05.2023 02:10 15,1 C 13,9 C 10,6 C 70 % 1021,5 hPa 0,0 l/m 0 min 0 min 0 W/m 9,7 km/h (2 Bft) 100,00 %
29.05.2023 02:12 15,0 C 13,9 C 10,6 C 70 % 1021,5 hPa 0,0 l/m 0 min 0 min 0 W/m 9,7 km/h (2 Bft) 100,00 %
29.05.2023 02:14 14,9 C 13,9 C 10,6 C 70 % 1021,5 hPa 0,0 l/m 0 min 0 min 0 W/m 3,2 km/h (1 Bft) 97,87 %
29.05.2023 02:16 14,9 C 13,9 C 10,6 C 71 % 1021,4 hPa 0,0 l/m 0 min 0 min 0 W/m 6,4 km/h (2 Bft) 100,00 %
29.05.2023 02:18 14,9 C 13,9 C 10,6 C 71 % 1021,5 hPa 0,0 l/m 0 min 0 min 0 W/m 6,4 km/h (2 Bft) 100,00 %
29.05.2023 02:20 14,9 C 13,9 C 10,6 C 71 % 1021,5 hPa 0,0 l/m 0 min 0 min 0 W/m 6,4 km/h (2 Bft) 100,00 %
29.05.2023 02:22 14,8 C 13,9 C 10,6 C 71 % 1021,6 hPa 0,0 l/m 0 min 0 min 0 W/m 25,7 km/h (4 Bft) 97,83 %
29.05.2023 02:24 14,8 C 13,9 C 10,6 C 71 % 1021,5 hPa 0,0 l/m 0 min 0 min 0 W/m 6,4 km/h (2 Bft) 100,00 %
29.05.2023 02:26 14,8 C 13,9 C 10,6 C 71 % 1021,5 hPa 0,0 l/m 0 min 0 min 0 W/m 9,7 km/h (2 Bft) 95,74 %
29.05.2023 02:28 14,7 C 13,9 C 10,6 C 71 % 1021,5 hPa 0,0 l/m 0 min 0 min 0 W/m 12,9 km/h (3 Bft) 100,00 %
29.05.2023 02:30 14,7 C 13,9 C 10,6 C 71 % 1021,6 hPa 0,0 l/m 0 min 0 min 0 W/m 6,4 km/h (2 Bft) 100,00 %
29.05.2023 02:32 14,6 C 13,9 C 10,0 C 72 % 1021,6 hPa 0,0 l/m 0 min 0 min 0 W/m 6,4 km/h (2 Bft) 100,00 %
29.05.2023 02:34 14,6 C 13,9 C 10,0 C 72 % 1021,6 hPa 0,0 l/m 0 min 0 min 0 W/m 9,7 km/h (2 Bft) 100,00 %
29.05.2023 02:36 14,6 C 13,9 C 10,0 C 72 % 1021,7 hPa 0,0 l/m 0 min 0 min 0 W/m 12,9 km/h (3 Bft) 100,00 %
29.05.2023 02:38 14,5 C 13,9 C 10,0 C 72 % 1021,7 hPa 0,0 l/m 0 min 0 min 0 W/m 12,9 km/h (3 Bft) 100,00 %
29.05.2023 02:40 14,5 C 13,3 C 10,0 C 72 % 1021,7 hPa 0,0 l/m 0 min 0 min 0 W/m 6,4 km/h (2 Bft) 97,92 %
29.05.2023 02:42 14,4 C 13,3 C 10,0 C 72 % 1021,7 hPa 0,0 l/m 0 min 0 min 0 W/m 16,1 km/h (3 Bft) 95,74 %
29.05.2023 02:44 14,3 C 13,3 C 10,0 C 72 % 1021,7 hPa 0,0 l/m 0 min 0 min 0 W/m 12,9 km/h (3 Bft) 97,87 %
29.05.2023 02:46 14,3 C 13,3 C 10,0 C 72 % 1021,7 hPa 0,0 l/m 0 min 0 min 0 W/m 12,9 km/h (3 Bft) 97,87 %
29.05.2023 02:48 14,3 C 13,3 C 10,0 C 72 % 1021,7 hPa 0,0 l/m 0 min 0 min 0 W/m 9,7 km/h (2 Bft) 100,00 %
29.05.2023 02:50 14,3 C 13,3 C 10,0 C 73 % 1021,8 hPa 0,0 l/m 0 min 0 min 0 W/m 9,7 km/h (2 Bft) 97,87 %
29.05.2023 02:52 14,3 C 13,3 C 10,0 C 73 % 1021,8 hPa 0,0 l/m 0 min 0 min 0 W/m 6,4 km/h (2 Bft) 100,00 %
29.05.2023 02:54 14,3 C 13,3 C 10,0 C 73 % 1021,8 hPa 0,0 l/m 0 min 0 min 0 W/m 12,9 km/h (3 Bft) 97,87 %
29.05.2023 02:56 14,3 C 13,3 C 10,0 C 73 % 1021,8 hPa 0,0 l/m 0 min 0 min 0 W/m 19,3 km/h (3 Bft) 95,74 %
29.05.2023 02:58 14,3 C 13,3 C 10,0 C 73 % 1021,8 hPa 0,0 l/m 0 min 0 min 0 W/m 16,1 km/h (3 Bft) 98,00 %
29.05.2023 03:00 14,2 C 13,3 C 10,0 C 73 % 1021,8 hPa 0,0 l/m 0 min 0 min 0 W/m 9,7 km/h (2 Bft) 97,87 %
29.05.2023 03:02 14,2 C 13,3 C 10,0 C 73 % 1021,9 hPa 0,0 l/m 0 min 0 min 0 W/m 6,4 km/h (2 Bft) 97,83 %
29.05.2023 03:04 14,2 C 13,3 C 10,0 C 73 % 1022,0 hPa 0,0 l/m 0 min 0 min 0 W/m 9,7 km/h (2 Bft) 97,96 %
29.05.2023 03:06 14,1 C 13,3 C 9,4 C 74 % 1021,9 hPa 0,0 l/m 0 min 0 min 0 W/m 19,3 km/h (3 Bft) 97,87 %
29.05.2023 03:08 14,1 C 13,3 C 9,4 C 74 % 1022,0 hPa 0,0 l/m 0 min 0 min 0 W/m 12,9 km/h (3 Bft) 97,87 %
29.05.2023 03:10 14,0 C 12,8 C 9,4 C 75 % 1021,9 hPa 0,0 l/m 0 min 0 min 0 W/m 6,4 km/h (2 Bft) 97,14 %
29.05.2023 03:12 14,0 C 12,8 C 9,4 C 75 % 1021,9 hPa 0,0 l/m 0 min 0 min 0 W/m 12,9 km/h (3 Bft) 97,87 %
29.05.2023 03:14 13,9 C 12,8 C 9,4 C 76 % 1021,9 hPa 0,0 l/m 0 min 0 min 0 W/m 9,7 km/h (2 Bft) 96,30 %
29.05.2023 03:16 13,9 C 12,8 C 9,4 C 76 % 1021,9 hPa 0,0 l/m 0 min 0 min 0 W/m 16,1 km/h (3 Bft) 95,92 %
29.05.2023 03:18 13,8 C 12,8 C 9,4 C 76 % 1021,9 hPa 0,0 l/m 0 min 0 min 0 W/m 12,9 km/h (3 Bft) 95,74 %
29.05.2023 03:20 13,8 C 12,8 C 9,4 C 76 % 1022,0 hPa 0,0 l/m 0 min 0 min 0 W/m 12,9 km/h (3 Bft) 95,74 %
29.05.2023 03:22 13,7 C 12,8 C 9,4 C 77 % 1021,9 hPa 0,0 l/m 0 min 0 min 0 W/m 19,3 km/h (3 Bft) 93,62 %
29.05.2023 03:24 13,7 C 12,8 C 9,4 C 77 % 1021,9 hPa 0,0 l/m 0 min 0 min 0 W/m 12,9 km/h (3 Bft) 95,74 %
29.05.2023 03:26 13,6 C 12,8 C 9,4 C 77 % 1021,9 hPa 0,0 l/m 0 min 0 min 0 W/m 12,9 km/h (3 Bft) 95,35 %
29.05.2023 03:28 13,6 C 12,8 C 9,4 C 78 % 1021,9 hPa 0,0 l/m 0 min 0 min 0 W/m 12,9 km/h (3 Bft) 95,74 %
29.05.2023 03:30 13,6 C 12,8 C 9,4 C 78 % 1022,0 hPa 0,0 l/m 0 min 0 min 0 W/m 22,5 km/h (4 Bft) 95,65 %
29.05.2023 03:32 13,4 C 12,2 C 8,9 C 78 % 1021,9 hPa 0,0 l/m 0 min 0 min 0 W/m 22,5 km/h (4 Bft) 95,74 %
29.05.2023 03:34 13,4 C 12,2 C 8,9 C 79 % 1022,0 hPa 0,0 l/m 0 min 0 min 0 W/m 29,0 km/h (5 Bft) 95,74 %
29.05.2023 03:36 13,3 C 12,2 C 8,9 C 79 % 1022,0 hPa 0,0 l/m 0 min 0 min 0 W/m 16,1 km/h (3 Bft) 93,75 %
29.05.2023 03:38 13,3 C 12,2 C 8,9 C 80 % 1022,0 hPa 0,0 l/m 0 min 0 min 0 W/m 9,7 km/h (2 Bft) 96,08 %
29.05.2023 03:40 13,2 C 12,2 C 8,9 C 80 % 1022,0 hPa 0,0 l/m 0 min 0 min 0 W/m 9,7 km/h (2 Bft) 95,74 %
29.05.2023 03:42 13,2 C 12,2 C 8,9 C 80 % 1022,0 hPa 0,0 l/m 0 min 0 min 0 W/m 9,7 km/h (2 Bft) 95,65 %
29.05.2023 03:44 13,1 C 12,2 C 8,9 C 80 % 1022,1 hPa 0,0 l/m 0 min 0 min 0 W/m 12,9 km/h (3 Bft) 93,62 %
29.05.2023 03:46 13,1 C 12,2 C 8,9 C 81 % 1022,1 hPa 0,0 l/m 0 min 0 min 0 W/m 16,1 km/h (3 Bft) 97,37 %
29.05.2023 03:48 13,1 C 12,2 C 8,9 C 81 % 1022,1 hPa 0,0 l/m 0 min 0 min 0 W/m 12,9 km/h (3 Bft) 94,44 %
29.05.2023 03:50 13,0 C 12,2 C 8,9 C 81 % 1022,2 hPa 0,0 l/m 0 min 0 min 0 W/m 16,1 km/h (3 Bft) 97,87 %
29.05.2023 03:52 12,9 C 12,2 C 8,9 C 81 % 1022,2 hPa 0,0 l/m 0 min 0 min 0 W/m 19,3 km/h (3 Bft) 100,00 %
29.05.2023 03:54 12,9 C 12,2 C 8,3 C 81 % 1022,3 hPa 0,0 l/m 0 min 0 min 0 W/m 16,1 km/h (3 Bft) 100,00 %
29.05.2023 03:56 12,8 C 12,2 C 8,3 C 81 % 1022,3 hPa 0,0 l/m 0 min 0 min 0 W/m 16,1 km/h (3 Bft) 100,00 %
29.05.2023 03:58 12,8 C 11,7 C 8,3 C 81 % 1022,3 hPa 0,0 l/m 0 min 0 min 0 W/m 12,9 km/h (3 Bft) 100,00 %
29.05.2023 04:00 12,7 C 11,7 C 8,3 C 82 % 1022,4 hPa 0,0 l/m 0 min 0 min 0 W/m 12,9 km/h (3 Bft) 93,62 %
29.05.2023 04:02 12,7 C 11,7 C 8,3 C 82 % 1022,4 hPa 0,0 l/m 0 min 0 min 0 W/m 12,9 km/h (3 Bft) 97,30 %
29.05.2023 04:04 12,6 C 11,7 C 8,3 C 82 % 1022,4 hPa 0,0 l/m 0 min 0 min 0 W/m 12,9 km/h (3 Bft) 97,62 %
29.05.2023 04:06 12,6 C 11,7 C 8,3 C 82 % 1022,5 hPa 0,0 l/m 0 min 0 min 0 W/m 9,7 km/h (2 Bft) 93,62 %
29.05.2023 04:10 12,5 C 11,7 C 8,3 C 82 % 1022,4 hPa 0,0 l/m 0 min 0 min 0 W/m 9,7 km/h (2 Bft) 88,60 %
29.05.2023 04:16 12,3 C 11,7 C 8,3 C 82 % 1022,5 hPa 0,0 l/m 0 min 0 min 0 W/m 12,9 km/h (3 Bft) 95,56 %
29.05.2023 04:18 12,3 C 11,7 C 8,3 C 81 % 1022,4 hPa 0,0 l/m 0 min 0 min 0 W/m 19,3 km/h (3 Bft) 97,87 %
29.05.2023 04:20 12,2 C 11,7 C 7,8 C 81 % 1022,4 hPa 0,0 l/m 0 min 0 min 0 W/m 16,1 km/h (3 Bft) 97,87 %
29.05.2023 04:22 12,2 C 11,7 C 7,8 C 81 % 1022,4 hPa 0,0 l/m 0 min 0 min 0 W/m 9,7 km/h (2 Bft) 95,65 %
29.05.2023 04:24 12,1 C 11,7 C 7,8 C 80 % 1022,5 hPa 0,0 l/m 0 min 0 min 0 W/m 19,3 km/h (3 Bft) 97,87 %
29.05.2023 04:26 12,1 C 11,1 C 7,8 C 80 % 1022,4 hPa 0,0 l/m 0 min 0 min 0 W/m 12,9 km/h (3 Bft) 97,87 %
29.05.2023 04:28 12,1 C 11,1 C 7,8 C 80 % 1022,5 hPa 0,0 l/m 0 min 0 min 0 W/m 19,3 km/h (3 Bft) 97,92 %
29.05.2023 04:30 12,1 C 11,1 C 7,8 C 80 % 1022,5 hPa 0,0 l/m 0 min 0 min 0 W/m 19,3 km/h (3 Bft) 95,74 %
29.05.2023 04:32 12,0 C 11,1 C 7,8 C 80 % 1022,5 hPa 0,0 l/m 0 min 0 min 0 W/m 16,1 km/h (3 Bft) 97,87 %
29.05.2023 04:34 12,0 C 11,1 C 7,8 C 80 % 1022,5 hPa 0,0 l/m 0 min 0 min 0 W/m 6,4 km/h (2 Bft) 95,74 %
29.05.2023 04:36 12,0 C 11,1 C 7,8 C 80 % 1022,6 hPa 0,0 l/m 0 min 0 min 0 W/m 12,9 km/h (3 Bft) 93,48 %
29.05.2023 04:38 11,9 C 11,1 C 7,8 C 80 % 1022,5 hPa 0,0 l/m 0 min 0 min 0 W/m 19,3 km/h (3 Bft) 97,87 %
29.05.2023 04:40 11,9 C 11,1 C 7,8 C 80 % 1022,6 hPa 0,0 l/m 0 min 0 min 0 W/m 16,1 km/h (3 Bft) 97,87 %
29.05.2023 04:42 11,9 C 11,1 C 7,8 C 80 % 1022,5 hPa 0,0 l/m 0 min 0 min 0 W/m 16,1 km/h (3 Bft) 97,87 %
29.05.2023 04:44 11,8 C 11,1 C 7,8 C 80 % 1022,5 hPa 0,0 l/m 0 min 0 min 0 W/m 16,1 km/h (3 Bft) 95,74 %
29.05.2023 04:46 11,8 C 11,1 C 7,8 C 80 % 1022,5 hPa 0,0 l/m 0 min 0 min 0 W/m 6,4 km/h (2 Bft) 97,87 %
29.05.2023 04:48 11,8 C 11,1 C 7,8 C 80 % 1022,5 hPa 0,0 l/m 0 min 0 min 0 W/m 6,4 km/h (2 Bft) 95,74 %
29.05.2023 04:50 11,8 C 11,1 C 7,8 C 80 % 1022,5 hPa 0,0 l/m 0 min 0 min 0 W/m 9,7 km/h (2 Bft) 97,83 %
29.05.2023 04:52 11,8 C 11,1 C 7,8 C 80 % 1022,6 hPa 0,0 l/m 0 min 0 min 0 W/m 19,3 km/h (3 Bft) 95,74 %
29.05.2023 04:54 11,7 C 11,1 C 7,8 C 80 % 1022,5 hPa 0,0 l/m 0 min 0 min 0 W/m 9,7 km/h (2 Bft) 97,87 %
29.05.2023 04:56 11,7 C 11,1 C 7,8 C 79 % 1022,5 hPa 0,0 l/m 0 min 0 min 0 W/m 16,1 km/h (3 Bft) 95,74 %
29.05.2023 04:58 11,7 C 11,1 C 7,8 C 79 % 1022,5 hPa 0,0 l/m 0 min 0 min 0 W/m 12,9 km/h (3 Bft) 97,87 %
29.05.2023 05:00 11,7 C 11,1 C 7,8 C 79 % 1022,6 hPa 0,0 l/m 0 min 0 min 0 W/m 16,1 km/h (3 Bft) 97,87 %
29.05.2023 05:02 11,7 C 11,1 C 7,8 C 79 % 1022,5 hPa 0,0 l/m 0 min 0 min 0 W/m 12,9 km/h (3 Bft) 95,74 %
29.05.2023 05:04 11,7 C 11,1 C 7,8 C 79 % 1022,6 hPa 0,0 l/m 0 min 0 min 0 W/m 12,9 km/h (3 Bft) 95,65 %
29.05.2023 05:06 11,7 C 11,1 C 7,8 C 79 % 1022,6 hPa 0,0 l/m 0 min 0 min 0 W/m 9,7 km/h (2 Bft) 93,33 %
29.05.2023 05:08 11,7 C 11,1 C 7,8 C 79 % 1022,7 hPa 0,0 l/m 0 min 0 min 0 W/m 9,7 km/h (2 Bft) 94,29 %
29.05.2023 05:10 11,7 C 11,1 C 7,8 C 79 % 1022,6 hPa 0,0 l/m 0 min 0 min 0 W/m 19,3 km/h (3 Bft) 97,87 %
29.05.2023 05:12 11,6 C 11,1 C 7,8 C 79 % 1022,6 hPa 0,0 l/m 0 min 0 min 0 W/m 12,9 km/h (3 Bft) 95,74 %
29.05.2023 05:14 11,6 C 11,1 C 7,8 C 79 % 1022,7 hPa 0,0 l/m 0 min 0 min 0 W/m 6,4 km/h (2 Bft) 97,87 %
29.05.2023 05:16 11,6 C 10,6 C 7,8 C 79 % 1022,6 hPa 0,0 l/m 0 min 0 min 0 W/m 22,5 km/h (4 Bft) 95,74 %
29.05.2023 05:18 11,6 C 10,6 C 7,2 C 79 % 1022,6 hPa 0,0 l/m 0 min 0 min 0 W/m 12,9 km/h (3 Bft) 95,65 %
29.05.2023 05:20 11,6 C 10,6 C 7,2 C 79 % 1022,6 hPa 0,0 l/m 0 min 0 min 0 W/m 6,4 km/h (2 Bft) 95,74 %
29.05.2023 05:22 11,6 C 10,6 C 7,2 C 79 % 1022,6 hPa 0,0 l/m 0 min 0 min 0 W/m 6,4 km/h (2 Bft) 97,87 %
29.05.2023 05:24 11,6 C 10,6 C 7,2 C 79 % 1022,7 hPa 0,0 l/m 0 min 0 min 0 W/m 9,7 km/h (2 Bft) 97,87 %
29.05.2023 05:26 11,5 C 10,6 C 7,2 C 79 % 1022,6 hPa 0,0 l/m 0 min 0 min 0 W/m 12,9 km/h (3 Bft) 95,74 %
29.05.2023 05:28 11,5 C 10,6 C 7,2 C 79 % 1022,7 hPa 0,0 l/m 0 min 0 min 0 W/m 12,9 km/h (3 Bft) 95,74 %
29.05.2023 05:30 11,5 C 10,6 C 7,2 C 79 % 1022,7 hPa 0,0 l/m 0 min 0 min 0 W/m 9,7 km/h (2 Bft) 93,62 %
29.05.2023 05:32 11,4 C 10,6 C 7,2 C 79 % 1022,7 hPa 0,0 l/m 0 min 0 min 3 W/m 6,4 km/h (2 Bft) 93,48 %
29.05.2023 05:34 11,4 C 10,6 C 7,2 C 79 % 1022,7 hPa 0,0 l/m 0 min 0 min 5 W/m 16,1 km/h (3 Bft) 95,74 %
29.05.2023 05:36 11,4 C 10,6 C 7,2 C 79 % 1022,7 hPa 0,0 l/m 0 min 0 min 5 W/m 6,4 km/h (2 Bft) 97,87 %
29.05.2023 05:38 11,4 C 10,6 C 7,2 C 79 % 1022,7 hPa 0,0 l/m 0 min 0 min 6 W/m 12,9 km/h (3 Bft) 97,87 %
29.05.2023 05:40 11,4 C 10,6 C 7,2 C 79 % 1022,7 hPa 0,0 l/m 0 min 0 min 7 W/m 6,4 km/h (2 Bft) 97,87 %
29.05.2023 05:42 11,4 C 10,6 C 7,2 C 80 % 1022,7 hPa 0,0 l/m 0 min 0 min 7 W/m 19,3 km/h (3 Bft) 97,87 %
29.05.2023 05:44 11,4 C 10,6 C 7,2 C 80 % 1022,7 hPa 0,0 l/m 0 min 0 min 9 W/m 16,1 km/h (3 Bft) 91,49 %
29.05.2023 05:46 11,4 C 10,6 C 7,2 C 80 % 1022,7 hPa 0,0 l/m 0 min 0 min 9 W/m 6,4 km/h (2 Bft) 97,83 %
29.05.2023 05:48 11,3 C 10,6 C 7,2 C 80 % 1022,7 hPa 0,0 l/m 0 min 0 min 10 W/m 12,9 km/h (3 Bft) 97,87 %
29.05.2023 05:50 11,3 C 10,6 C 7,2 C 80 % 1022,7 hPa 0,0 l/m 0 min 0 min 11 W/m 9,7 km/h (2 Bft) 95,74 %
29.05.2023 05:52 11,3 C 10,6 C 7,2 C 80 % 1022,7 hPa 0,0 l/m 0 min 0 min 11 W/m 9,7 km/h (2 Bft) 95,74 %
29.05.2023 05:54 11,3 C 10,6 C 7,2 C 80 % 1022,7 hPa 0,0 l/m 0 min 0 min 12 W/m 12,9 km/h (3 Bft) 97,87 %
29.05.2023 05:56 11,3 C 10,6 C 7,2 C 80 % 1022,7 hPa 0,0 l/m 0 min 0 min 13 W/m 16,1 km/h (3 Bft) 97,87 %
29.05.2023 05:58 11,3 C 10,6 C 7,2 C 80 % 1022,8 hPa 0,0 l/m 0 min 0 min 14 W/m 9,7 km/h (2 Bft) 97,83 %
29.05.2023 06:00 11,2 C 10,6 C 7,2 C 81 % 1022,8 hPa 0,0 l/m 0 min 0 min 14 W/m 6,4 km/h (2 Bft) 97,87 %
29.05.2023 06:02 11,2 C 10,6 C 7,2 C 81 % 1022,8 hPa 0,0 l/m 0 min 0 min 15 W/m 16,1 km/h (3 Bft) 95,74 %
29.05.2023 06:04 11,2 C 10,6 C 7,2 C 81 % 1022,8 hPa 0,0 l/m 0 min 0 min 16 W/m 9,7 km/h (2 Bft) 97,87 %
29.05.2023 06:07 11,2 C 10,6 C 7,2 C 81 % 1022,9 hPa 0,0 l/m 0 min 0 min 18 W/m 16,1 km/h (3 Bft) 97,87 %
29.05.2023 06:08 11,2 C 10,6 C 7,2 C 81 % 1022,9 hPa 0,0 l/m 0 min 0 min 18 W/m 16,1 km/h (3 Bft) 97,92 %
29.05.2023 06:10 11,1 C 10,6 C 7,2 C 81 % 1022,9 hPa 0,0 l/m 0 min 0 min 19 W/m 9,7 km/h (2 Bft) 97,87 %
29.05.2023 06:12 11,1 C 10,6 C 7,2 C 81 % 1023,0 hPa 0,0 l/m 0 min 0 min 19 W/m 9,7 km/h (2 Bft) 100,00 %
29.05.2023 06:14 11,1 C 10,6 C 7,2 C 81 % 1023,0 hPa 0,0 l/m 0 min 0 min 20 W/m 9,7 km/h (2 Bft) 100,00 %
29.05.2023 06:16 11,1 C 10,6 C 7,2 C 81 % 1023,0 hPa 0,0 l/m 0 min 0 min 21 W/m 9,7 km/h (2 Bft) 100,00 %
29.05.2023 06:18 11,1 C 10,6 C 7,2 C 81 % 1023,1 hPa 0,0 l/m 0 min 0 min 21 W/m 16,1 km/h (3 Bft) 100,00 %
29.05.2023 06:20 11,1 C 10,6 C 7,2 C 81 % 1023,0 hPa 0,0 l/m 0 min 0 min 23 W/m 16,1 km/h (3 Bft) 100,00 %
29.05.2023 06:22 11,1 C 10,6 C 7,2 C 81 % 1023,0 hPa 0,0 l/m 0 min 0 min 23 W/m 12,9 km/h (3 Bft) 100,00 %
29.05.2023 06:24 11,1 C 10,6 C 7,2 C 81 % 1023,0 hPa 0,0 l/m 0 min 0 min 25 W/m 9,7 km/h (2 Bft) 100,00 %
29.05.2023 06:26 11,1 C 10,6 C 7,2 C 81 % 1023,0 hPa 0,0 l/m 0 min 0 min 25 W/m 12,9 km/h (3 Bft) 97,87 %
29.05.2023 06:28 11,0 C 10,6 C 7,2 C 82 % 1023,0 hPa 0,0 l/m 0 min 0 min 26 W/m 22,5 km/h (4 Bft) 97,87 %
29.05.2023 06:30 11,0 C 10,6 C 7,2 C 82 % 1023,1 hPa 0,0 l/m 0 min 0 min 26 W/m 19,3 km/h (3 Bft) 100,00 %
29.05.2023 06:32 11,0 C 10,6 C 7,2 C 82 % 1023,0 hPa 0,0 l/m 0 min 0 min 27 W/m 12,9 km/h (3 Bft) 100,00 %
29.05.2023 06:34 11,0 C 10,6 C 6,7 C 82 % 1023,1 hPa 0,0 l/m 0 min 0 min 28 W/m 16,1 km/h (3 Bft) 100,00 %
29.05.2023 06:36 10,9 C 10,6 C 7,2 C 82 % 1023,1 hPa 0,0 l/m 0 min 0 min 28 W/m 12,9 km/h (3 Bft) 100,00 %
29.05.2023 06:38 10,9 C 10,6 C 6,7 C 82 % 1023,1 hPa 0,0 l/m 0 min 0 min 30 W/m 9,7 km/h (2 Bft) 100,00 %
29.05.2023 06:40 10,9 C 10,6 C 7,2 C 82 % 1023,0 hPa 0,0 l/m 0 min 0 min 30 W/m 16,1 km/h (3 Bft) 97,87 %
29.05.2023 06:42 10,9 C 10,6 C 7,2 C 82 % 1023,0 hPa 0,0 l/m 0 min 0 min 32 W/m 6,4 km/h (2 Bft) 100,00 %
29.05.2023 06:44 10,9 C 10,6 C 7,2 C 82 % 1023,0 hPa 0,0 l/m 0 min 0 min 32 W/m 9,7 km/h (2 Bft) 100,00 %
29.05.2023 06:46 10,9 C 10,6 C 7,2 C 83 % 1023,0 hPa 0,0 l/m 0 min 0 min 33 W/m 6,4 km/h (2 Bft) 100,00 %
29.05.2023 06:48 10,9 C 10,6 C 7,2 C 83 % 1023,1 hPa 0,0 l/m 0 min 0 min 33 W/m 16,1 km/h (3 Bft) 100,00 %
29.05.2023 06:50 11,0 C 10,6 C 7,2 C 83 % 1023,1 hPa 0,0 l/m 0 min 0 min 33 W/m 16,1 km/h (3 Bft) 97,87 %
29.05.2023 06:52 11,0 C 10,6 C 7,2 C 83 % 1023,2 hPa 0,0 l/m 0 min 0 min 34 W/m 12,9 km/h (3 Bft) 95,65 %
29.05.2023 06:54 11,0 C 10,6 C 7,2 C 82 % 1023,2 hPa 0,0 l/m 0 min 0 min 35 W/m 12,9 km/h (3 Bft) 97,87 %
29.05.2023 06:56 11,0 C 10,6 C 7,2 C 82 % 1023,1 hPa 0,0 l/m 0 min 0 min 36 W/m 19,3 km/h (3 Bft) 97,87 %
29.05.2023 06:58 11,0 C 10,6 C 7,2 C 83 % 1023,2 hPa 0,0 l/m 0 min 0 min 37 W/m 6,4 km/h (2 Bft) 95,74 %
29.05.2023 07:00 11,1 C 10,6 C 7,2 C 83 % 1023,2 hPa 0,0 l/m 0 min 0 min 38 W/m 12,9 km/h (3 Bft) 97,87 %
29.05.2023 07:02 11,1 C 10,6 C 7,2 C 83 % 1023,3 hPa 0,0 l/m 0 min 0 min 39 W/m 25,7 km/h (4 Bft) 97,87 %
29.05.2023 07:04 11,1 C 10,6 C 7,2 C 82 % 1023,3 hPa 0,0 l/m 0 min 0 min 40 W/m 19,3 km/h (3 Bft) 97,87 %
29.05.2023 07:06 11,1 C 10,6 C 7,2 C 82 % 1023,3 hPa 0,0 l/m 0 min 0 min 40 W/m 16,1 km/h (3 Bft) 95,74 %
29.05.2023 07:08 11,1 C 10,6 C 7,2 C 82 % 1023,4 hPa 0,0 l/m 0 min 0 min 41 W/m 16,1 km/h (3 Bft) 97,83 %
29.05.2023 07:10 11,1 C 10,6 C 7,2 C 82 % 1023,4 hPa 0,0 l/m 0 min 0 min 42 W/m 9,7 km/h (2 Bft) 97,87 %
29.05.2023 07:12 11,2 C 10,6 C 7,2 C 82 % 1023,4 hPa 0,0 l/m 0 min 0 min 44 W/m 22,5 km/h (4 Bft) 98,00 %
29.05.2023 07:14 11,2 C 10,6 C 7,2 C 82 % 1023,4 hPa 0,0 l/m 0 min 0 min 44 W/m 19,3 km/h (3 Bft) 97,87 %
29.05.2023 07:16 11,2 C 10,6 C 7,2 C 82 % 1023,4 hPa 0,0 l/m 0 min 0 min 46 W/m 19,3 km/h (3 Bft) 97,87 %
29.05.2023 07:18 11,2 C 10,6 C 7,2 C 82 % 1023,5 hPa 0,0 l/m 0 min 0 min 46 W/m 22,5 km/h (4 Bft) 94,44 %
29.05.2023 07:20 11,2 C 10,6 C 7,2 C 82 % 1023,4 hPa 0,0 l/m 0 min 0 min 47 W/m 12,9 km/h (3 Bft) 100,00 %
29.05.2023 07:22 11,2 C 11,1 C 7,2 C 82 % 1023,5 hPa 0,0 l/m 0 min 0 min 48 W/m 6,4 km/h (2 Bft) 100,00 %
29.05.2023 07:24 11,3 C 11,1 C 7,2 C 82 % 1023,5 hPa 0,0 l/m 0 min 0 min 49 W/m 19,3 km/h (3 Bft) 97,87 %
29.05.2023 07:26 11,3 C 11,1 C 7,2 C 82 % 1023,4 hPa 0,0 l/m 0 min 0 min 51 W/m 9,7 km/h (2 Bft) 100,00 %
29.05.2023 07:28 11,3 C 11,1 C 7,8 C 82 % 1023,5 hPa 0,0 l/m 0 min 0 min 52 W/m 19,3 km/h (3 Bft) 95,74 %
29.05.2023 07:30 11,3 C 11,1 C 7,8 C 82 % 1023,4 hPa 0,0 l/m 0 min 0 min 53 W/m 9,7 km/h (2 Bft) 97,87 %
29.05.2023 07:32 11,4 C 11,1 C 7,8 C 82 % 1023,4 hPa 0,0 l/m 0 min 0 min 54 W/m 16,1 km/h (3 Bft) 97,87 %
29.05.2023 07:34 11,4 C 11,1 C 7,8 C 82 % 1023,5 hPa 0,0 l/m 0 min 0 min 56 W/m 16,1 km/h (3 Bft) 97,87 %
29.05.2023 07:36 11,4 C 11,1 C 7,8 C 82 % 1023,5 hPa 0,0 l/m 0 min 0 min 57 W/m 16,1 km/h (3 Bft) 97,87 %
29.05.2023 07:38 11,5 C 11,1 C 7,8 C 82 % 1023,5 hPa 0,0 l/m 0 min 0 min 58 W/m 19,3 km/h (3 Bft) 97,87 %
29.05.2023 07:40 11,5 C 11,1 C 7,8 C 82 % 1023,4 hPa 0,0 l/m 0 min 0 min 60 W/m 19,3 km/h (3 Bft) 97,87 %
29.05.2023 07:42 11,5 C 11,1 C 7,8 C 82 % 1023,4 hPa 0,0 l/m 0 min 0 min 63 W/m 16,1 km/h (3 Bft) 95,65 %
29.05.2023 07:44 11,6 C 11,1 C 7,8 C 82 % 1023,4 hPa 0,0 l/m 0 min 0 min 100 W/m 12,9 km/h (3 Bft) 97,87 %
29.05.2023 07:46 11,6 C 11,7 C 7,8 C 82 % 1023,4 hPa 0,0 l/m 0 min 0 min 71 W/m 12,9 km/h (3 Bft) 91,67 %
29.05.2023 07:48 11,6 C 11,7 C 7,8 C 82 % 1023,4 hPa 0,0 l/m 0 min 0 min 65 W/m 9,7 km/h (2 Bft) 93,62 %
29.05.2023 07:50 11,7 C 11,7 C 7,8 C 82 % 1023,4 hPa 0,0 l/m 0 min 0 min 68 W/m 6,4 km/h (2 Bft) 95,74 %
29.05.2023 07:52 11,7 C 11,7 C 7,8 C 82 % 1023,4 hPa 0,0 l/m 0 min 0 min 70 W/m 25,7 km/h (4 Bft) 95,74 %
29.05.2023 07:54 11,7 C 11,7 C 7,8 C 81 % 1023,4 hPa 0,0 l/m 0 min 0 min 87 W/m 12,9 km/h (3 Bft) 95,65 %
29.05.2023 07:56 11,8 C 11,7 C 7,8 C 81 % 1023,5 hPa 0,0 l/m 2 min 0 min 227 W/m 9,7 km/h (2 Bft) 97,87 %
29.05.2023 07:58 11,8 C 11,7 C 7,8 C 81 % 1023,5 hPa 0,0 l/m 2 min 0 min 282 W/m 6,4 km/h (2 Bft) 97,92 %
29.05.2023 08:00 11,9 C 12,2 C 8,3 C 81 % 1023,5 hPa 0,0 l/m 2 min 0 min 267 W/m 12,9 km/h (3 Bft) 93,62 %
29.05.2023 08:02 12,1 C 12,8 C 8,3 C 81 % 1023,5 hPa 0,0 l/m 2 min 0 min 282 W/m 22,5 km/h (4 Bft) 93,62 %
29.05.2023 08:04 12,1 C 13,3 C 8,3 C 80 % 1023,4 hPa 0,0 l/m 2 min 0 min 308 W/m 19,3 km/h (3 Bft) 95,74 %
29.05.2023 08:06 12,2 C 13,9 C 8,3 C 80 % 1023,3 hPa 0,0 l/m 2 min 0 min 302 W/m 16,1 km/h (3 Bft) 96,55 %
29.05.2023 08:08 12,2 C 14,4 C 8,3 C 80 % 1023,3 hPa 0,0 l/m 2 min 0 min 304 W/m 12,9 km/h (3 Bft) 88,57 %
29.05.2023 08:10 12,3 C 15,0 C 8,3 C 80 % 1023,4 hPa 0,0 l/m 2 min 0 min 277 W/m 12,9 km/h (3 Bft) 93,62 %
29.05.2023 08:12 12,4 C 15,0 C 8,3 C 79 % 1023,4 hPa 0,0 l/m 2 min 0 min 290 W/m 19,3 km/h (3 Bft) 95,74 %
29.05.2023 08:14 12,5 C 15,0 C 8,3 C 79 % 1023,4 hPa 0,0 l/m 2 min 0 min 301 W/m 16,1 km/h (3 Bft) 97,87 %
29.05.2023 08:16 12,6 C 14,4 C 8,3 C 78 % 1023,4 hPa 0,0 l/m 2 min 0 min 243 W/m 12,9 km/h (3 Bft) 97,87 %
29.05.2023 08:18 12,6 C 14,4 C 8,3 C 78 % 1023,4 hPa 0,0 l/m 0 min 0 min 191 W/m 16,1 km/h (3 Bft) 95,74 %
29.05.2023 08:20 12,7 C 14,4 C 8,3 C 78 % 1023,5 hPa 0,0 l/m 2 min 0 min 226 W/m 16,1 km/h (3 Bft) 97,87 %
29.05.2023 08:22 12,7 C 15,0 C 8,9 C 79 % 1023,5 hPa 0,0 l/m 2 min 0 min 250 W/m 6,4 km/h (2 Bft) 97,83 %
29.05.2023 08:24 12,8 C 15,0 C 8,9 C 78 % 1023,6 hPa 0,0 l/m 2 min 0 min 289 W/m 12,9 km/h (3 Bft) 97,87 %
29.05.2023 08:26 12,9 C 16,1 C 9,4 C 78 % 1023,5 hPa 0,0 l/m 2 min 0 min 349 W/m 12,9 km/h (3 Bft) 97,87 %
29.05.2023 08:28 13,1 C 16,7 C 9,4 C 78 % 1023,6 hPa 0,0 l/m 2 min 0 min 368 W/m 9,7 km/h (2 Bft) 97,87 %
29.05.2023 08:30 13,2 C 17,2 C 10,0 C 77 % 1023,7 hPa 0,0 l/m 2 min 0 min 366 W/m 16,1 km/h (3 Bft) 97,87 %
29.05.2023 08:32 13,4 C 17,2 C 10,6 C 77 % 1023,7 hPa 0,0 l/m 2 min 0 min 336 W/m 12,9 km/h (3 Bft) 97,87 %
29.05.2023 08:34 13,6 C 17,2 C 10,6 C 76 % 1023,7 hPa 0,0 l/m 2 min 0 min 338 W/m 16,1 km/h (3 Bft) 97,83 %
29.05.2023 08:36 13,6 C 17,2 C 10,6 C 75 % 1023,7 hPa 0,0 l/m 2 min 0 min 358 W/m 16,1 km/h (3 Bft) 97,87 %
29.05.2023 08:38 13,7 C 17,2 C 10,6 C 75 % 1023,7 hPa 0,0 l/m 2 min 0 min 364 W/m 16,1 km/h (3 Bft) 97,87 %
29.05.2023 08:40 13,8 C 17,2 C 10,6 C 74 % 1023,6 hPa 0,0 l/m 2 min 0 min 329 W/m 16,1 km/h (3 Bft) 97,87 %
29.05.2023 08:42 13,8 C 17,2 C 10,6 C 74 % 1023,6 hPa 0,0 l/m 2 min 0 min 338 W/m 16,1 km/h (3 Bft) 95,74 %
29.05.2023 08:44 13,8 C 17,2 C 10,6 C 74 % 1023,6 hPa 0,0 l/m 2 min 0 min 357 W/m 16,1 km/h (3 Bft) 97,87 %
29.05.2023 08:46 13,8 C 17,8 C 11,1 C 74 % 1023,6 hPa 0,0 l/m 2 min 0 min 379 W/m 12,9 km/h (3 Bft) 97,87 %
29.05.2023 08:48 13,9 C 18,3 C 11,1 C 74 % 1023,6 hPa 0,0 l/m 2 min 0 min 404 W/m 9,7 km/h (2 Bft) 95,65 %
29.05.2023 08:50 14,1 C 18,3 C 11,1 C 73 % 1023,6 hPa 0,0 l/m 2 min 0 min 425 W/m 22,5 km/h (4 Bft) 95,74 %
29.05.2023 08:52 14,1 C 18,3 C 11,1 C 73 % 1023,6 hPa 0,0 l/m 2 min 0 min 432 W/m 22,5 km/h (4 Bft) 93,62 %
29.05.2023 08:54 14,2 C 19,4 C 11,7 C 73 % 1023,6 hPa 0,0 l/m 2 min 0 min 440 W/m 9,7 km/h (2 Bft) 95,74 %
29.05.2023 08:56 14,3 C 18,9 C 11,7 C 73 % 1023,6 hPa 0,0 l/m 2 min 0 min 443 W/m 25,7 km/h (4 Bft) 93,62 %
29.05.2023 08:58 14,3 C 19,4 C 11,7 C 73 % 1023,7 hPa 0,0 l/m 2 min 0 min 461 W/m 9,7 km/h (2 Bft) 95,74 %
29.05.2023 09:00 14,6 C 20,0 C 11,7 C 72 % 1023,6 hPa 0,0 l/m 2 min 0 min 469 W/m 16,1 km/h (3 Bft) 95,74 %
29.05.2023 09:02 14,6 C 20,0 C 12,2 C 72 % 1023,6 hPa 0,0 l/m 2 min 0 min 469 W/m 12,9 km/h (3 Bft) 93,75 %
29.05.2023 09:04 14,7 C 19,4 C 12,2 C 72 % 1023,6 hPa 0,0 l/m 2 min 0 min 471 W/m 16,1 km/h (3 Bft) 93,75 %
29.05.2023 09:06 14,8 C 18,9 C 12,2 C 71 % 1023,5 hPa 0,0 l/m 2 min 0 min 461 W/m 19,3 km/h (3 Bft) 95,74 %
29.05.2023 09:08 14,8 C 19,4 C 12,2 C 71 % 1023,5 hPa 0,0 l/m 2 min 0 min 477 W/m 16,1 km/h (3 Bft) 95,74 %
29.05.2023 09:10 14,9 C 19,4 C 12,2 C 71 % 1023,5 hPa 0,0 l/m 2 min 0 min 457 W/m 19,3 km/h (3 Bft) 95,74 %
29.05.2023 09:12 14,9 C 18,9 C 12,2 C 71 % 1023,5 hPa 0,0 l/m 2 min 0 min 440 W/m 19,3 km/h (3 Bft) 95,74 %
29.05.2023 09:14 15,0 C 19,4 C 12,2 C 71 % 1023,5 hPa 0,0 l/m 2 min 0 min 432 W/m 16,1 km/h (3 Bft) 91,30 %
29.05.2023 09:16 15,0 C 19,4 C 12,2 C 71 % 1023,6 hPa 0,0 l/m 2 min 0 min 447 W/m 9,7 km/h (2 Bft) 93,62 %
29.05.2023 09:18 15,1 C 18,9 C 12,2 C 70 % 1023,6 hPa 0,0 l/m 2 min 0 min 445 W/m 29,0 km/h (5 Bft) 93,62 %
29.05.2023 09:20 15,2 C 18,9 C 12,2 C 70 % 1023,6 hPa 0,0 l/m 2 min 0 min 453 W/m 22,5 km/h (4 Bft) 95,74 %
29.05.2023 09:22 15,3 C 18,9 C 12,8 C 70 % 1023,6 hPa 0,0 l/m 2 min 0 min 467 W/m 12,9 km/h (3 Bft) 93,62 %
29.05.2023 09:24 15,3 C 18,9 C 12,8 C 70 % 1023,7 hPa 0,0 l/m 2 min 0 min 494 W/m 12,9 km/h (3 Bft) 97,87 %
29.05.2023 09:26 15,4 C 20,0 C 13,3 C 71 % 1023,7 hPa 0,0 l/m 2 min 0 min 488 W/m 9,7 km/h (2 Bft) 97,87 %
29.05.2023 09:28 15,4 C 19,4 C 13,3 C 70 % 1023,7 hPa 0,0 l/m 2 min 0 min 512 W/m 12,9 km/h (3 Bft) 97,83 %
29.05.2023 09:30 15,6 C 20,6 C 13,3 C 71 % 1023,7 hPa 0,0 l/m 2 min 0 min 501 W/m 9,7 km/h (2 Bft) 97,87 %
29.05.2023 09:32 15,8 C 20,0 C 13,3 C 70 % 1023,7 hPa 0,0 l/m 2 min 0 min 515 W/m 16,1 km/h (3 Bft) 97,87 %
29.05.2023 09:34 15,9 C 20,6 C 13,9 C 69 % 1023,8 hPa 0,0 l/m 2 min 0 min 503 W/m 12,9 km/h (3 Bft) 97,87 %
29.05.2023 09:36 15,9 C 19,4 C 13,9 C 69 % 1023,7 hPa 0,0 l/m 2 min 0 min 528 W/m 19,3 km/h (3 Bft) 97,87 %
29.05.2023 09:38 15,8 C 19,4 C 13,9 C 69 % 1023,8 hPa 0,0 l/m 2 min 0 min 504 W/m 12,9 km/h (3 Bft) 95,74 %
29.05.2023 09:40 15,8 C 20,0 C 13,9 C 69 % 1023,9 hPa 0,0 l/m 2 min 0 min 539 W/m 12,9 km/h (3 Bft) 97,87 %
29.05.2023 09:42 15,9 C 20,6 C 13,9 C 69 % 1023,8 hPa 0,0 l/m 2 min 0 min 551 W/m 12,9 km/h (3 Bft) 95,65 %
29.05.2023 09:44 15,9 C 19,4 C 13,9 C 69 % 1023,9 hPa 0,0 l/m 2 min 0 min 554 W/m 16,1 km/h (3 Bft) 100,00 %
29.05.2023 09:46 16,0 C 20,0 C 13,9 C 69 % 1023,9 hPa 0,0 l/m 2 min 0 min 564 W/m 16,1 km/h (3 Bft) 100,00 %
29.05.2023 09:48 16,1 C 20,0 C 14,4 C 68 % 1023,8 hPa 0,0 l/m 2 min 0 min 581 W/m 12,9 km/h (3 Bft) 100,00 %
29.05.2023 09:50 16,2 C 20,0 C 14,4 C 69 % 1023,9 hPa 0,0 l/m 2 min 0 min 603 W/m 12,9 km/h (3 Bft) 95,74 %
29.05.2023 09:52 16,2 C 20,6 C 15,0 C 69 % 1023,9 hPa 0,0 l/m 2 min 0 min 610 W/m 9,7 km/h (2 Bft) 100,00 %
29.05.2023 09:54 16,3 C 20,6 C 15,0 C 68 % 1023,9 hPa 0,0 l/m 2 min 0 min 607 W/m 19,3 km/h (3 Bft) 100,00 %
29.05.2023 09:56 16,3 C 20,6 C 15,0 C 68 % 1023,9 hPa 0,0 l/m 2 min 0 min 582 W/m 9,7 km/h (2 Bft) 100,00 %
29.05.2023 09:58 16,2 C 19,4 C 15,0 C 67 % 1023,8 hPa 0,0 l/m 2 min 0 min 568 W/m 22,5 km/h (4 Bft) 97,87 %
29.05.2023 10:00 16,1 C 19,4 C 15,0 C 68 % 1023,8 hPa 0,0 l/m 2 min 0 min 589 W/m 25,7 km/h (4 Bft) 100,00 %
29.05.2023 10:02 16,2 C 20,0 C 15,6 C 68 % 1023,9 hPa 0,0 l/m 2 min 0 min 611 W/m 16,1 km/h (3 Bft) 97,87 %
29.05.2023 10:04 16,2 C 19,4 C 15,6 C 68 % 1023,8 hPa 0,0 l/m 2 min 0 min 617 W/m 12,9 km/h (3 Bft) 95,74 %
29.05.2023 10:06 16,3 C 19,4 C 15,0 C 68 % 1023,9 hPa 0,0 l/m 2 min 0 min 620 W/m 12,9 km/h (3 Bft) 97,87 %
29.05.2023 10:08 16,3 C 19,4 C 15,0 C 68 % 1023,9 hPa 0,0 l/m 2 min 0 min 609 W/m 12,9 km/h (3 Bft) 97,87 %
29.05.2023 10:10 16,4 C 20,0 C 15,0 C 68 % 1023,9 hPa 0,0 l/m 2 min 0 min 597 W/m 12,9 km/h (3 Bft) 95,65 %
29.05.2023 10:12 16,4 C 20,0 C 15,6 C 67 % 1024,0 hPa 0,0 l/m 2 min 0 min 572 W/m 9,7 km/h (2 Bft) 97,87 %
29.05.2023 10:14 16,5 C 20,0 C 15,6 C 67 % 1024,1 hPa 0,0 l/m 2 min 0 min 586 W/m 19,3 km/h (3 Bft) 97,87 %
29.05.2023 10:16 16,6 C 18,9 C 15,0 C 67 % 1024,1 hPa 0,0 l/m 2 min 0 min 580 W/m 12,9 km/h (3 Bft) 95,74 %
29.05.2023 10:18 16,5 C 18,9 C 15,6 C 67 % 1024,0 hPa 0,0 l/m 2 min 0 min 604 W/m 12,9 km/h (3 Bft) 93,62 %
29.05.2023 10:20 16,5 C 18,9 C 15,6 C 67 % 1024,1 hPa 0,0 l/m 2 min 0 min 601 W/m 12,9 km/h (3 Bft) 97,87 %
29.05.2023 10:22 16,6 C 18,9 C 15,6 C 68 % 1024,0 hPa 0,0 l/m 2 min 0 min 593 W/m 12,9 km/h (3 Bft) 95,74 %
29.05.2023 10:24 16,6 C 18,3 C 15,0 C 68 % 1024,1 hPa 0,0 l/m 2 min 0 min 620 W/m 22,5 km/h (4 Bft) 97,83 %
29.05.2023 10:26 16,5 C 18,3 C 15,0 C 67 % 1024,0 hPa 0,0 l/m 2 min 0 min 621 W/m 12,9 km/h (3 Bft) 95,74 %
29.05.2023 10:28 16,5 C 18,3 C 15,6 C 67 % 1024,0 hPa 0,0 l/m 2 min 0 min 630 W/m 19,3 km/h (3 Bft) 95,74 %
29.05.2023 10:30 16,6 C 18,9 C 15,0 C 67 % 1024,0 hPa 0,0 l/m 2 min 0 min 620 W/m 12,9 km/h (3 Bft) 97,87 %
29.05.2023 10:32 16,6 C 18,9 C 15,0 C 68 % 1024,0 hPa 0,0 l/m 2 min 0 min 622 W/m 16,1 km/h (3 Bft) 95,74 %
29.05.2023 10:34 16,7 C 18,9 C 15,0 C 68 % 1024,0 hPa 0,0 l/m 2 min 0 min 664 W/m 19,3 km/h (3 Bft) 95,74 %
29.05.2023 10:36 16,7 C 18,3 C 15,6 C 67 % 1024,1 hPa 0,0 l/m 2 min 0 min 677 W/m 12,9 km/h (3 Bft) 91,49 %
29.05.2023 10:38 16,6 C 17,8 C 15,0 C 67 % 1024,1 hPa 0,0 l/m 2 min 0 min 633 W/m 19,3 km/h (3 Bft) 97,83 %
29.05.2023 10:40 16,6 C 18,3 C 15,0 C 67 % 1024,0 hPa 0,0 l/m 2 min 0 min 636 W/m 9,7 km/h (2 Bft) 95,74 %
29.05.2023 10:42 16,7 C 18,9 C 15,0 C 68 % 1024,1 hPa 0,0 l/m 2 min 0 min 644 W/m 16,1 km/h (3 Bft) 97,87 %
29.05.2023 10:44 16,8 C 18,9 C 15,6 C 67 % 1024,1 hPa 0,0 l/m 2 min 0 min 679 W/m 12,9 km/h (3 Bft) 97,87 %
29.05.2023 10:46 16,9 C 18,9 C 15,6 C 67 % 1024,1 hPa 0,0 l/m 2 min 0 min 708 W/m 16,1 km/h (3 Bft) 95,74 %
29.05.2023 10:48 16,9 C 18,9 C 15,6 C 67 % 1024,1 hPa 0,0 l/m 2 min 0 min 706 W/m 22,5 km/h (4 Bft) 95,74 %
29.05.2023 10:50 17,0 C 18,3 C 15,0 C 66 % 1024,1 hPa 0,0 l/m 2 min 0 min 689 W/m 12,9 km/h (3 Bft) 97,83 %
29.05.2023 10:52 16,9 C 18,3 C 15,0 C 66 % 1024,1 hPa 0,0 l/m 2 min 0 min 682 W/m 16,1 km/h (3 Bft) 95,74 %
29.05.2023 10:54 16,9 C 18,3 C 15,0 C 67 % 1024,1 hPa 0,0 l/m 2 min 0 min 664 W/m 19,3 km/h (3 Bft) 97,87 %
29.05.2023 10:56 16,9 C 18,3 C 15,0 C 67 % 1024,1 hPa 0,0 l/m 2 min 0 min 646 W/m 16,1 km/h (3 Bft) 95,74 %
29.05.2023 10:58 17,0 C 18,9 C 15,0 C 67 % 1024,1 hPa 0,0 l/m 2 min 0 min 647 W/m 16,1 km/h (3 Bft) 93,62 %
29.05.2023 11:00 17,1 C 19,4 C 14,4 C 67 % 1024,1 hPa 0,0 l/m 2 min 0 min 679 W/m 12,9 km/h (3 Bft) 97,87 %
29.05.2023 11:02 17,2 C 18,9 C 14,4 C 66 % 1024,1 hPa 0,0 l/m 2 min 0 min 679 W/m 16,1 km/h (3 Bft) 97,87 %
29.05.2023 11:04 17,2 C 19,4 C 13,9 C 66 % 1024,1 hPa 0,0 l/m 2 min 0 min 673 W/m 19,3 km/h (3 Bft) 95,65 %
29.05.2023 11:06 17,2 C 18,9 C 13,9 C 66 % 1024,2 hPa 0,0 l/m 2 min 0 min 655 W/m 19,3 km/h (3 Bft) 95,74 %
29.05.2023 11:08 17,2 C 19,4 C 13,9 C 66 % 1024,2 hPa 0,0 l/m 2 min 0 min 678 W/m 12,9 km/h (3 Bft) 95,74 %
29.05.2023 11:10 17,3 C 19,4 C 14,4 C 67 % 1024,1 hPa 0,0 l/m 2 min 0 min 654 W/m 22,5 km/h (4 Bft) 95,74 %
29.05.2023 11:12 17,3 C 19,4 C 14,4 C 66 % 1024,1 hPa 0,0 l/m 2 min 0 min 659 W/m 16,1 km/h (3 Bft) 97,87 %
29.05.2023 11:14 17,4 C 20,0 C 14,4 C 66 % 1024,2 hPa 0,0 l/m 2 min 0 min 628 W/m 12,9 km/h (3 Bft) 97,87 %
29.05.2023 11:16 17,5 C 20,0 C 15,0 C 66 % 1024,1 hPa 0,0 l/m 2 min 0 min 616 W/m 12,9 km/h (3 Bft) 95,74 %
29.05.2023 11:18 17,6 C 20,0 C 15,0 C 66 % 1024,2 hPa 0,0 l/m 2 min 0 min 662 W/m 16,1 km/h (3 Bft) 97,83 %
29.05.2023 11:20 17,6 C 20,0 C 14,4 C 65 % 1024,2 hPa 0,0 l/m 2 min 0 min 678 W/m 22,5 km/h (4 Bft) 97,87 %
29.05.2023 11:22 17,6 C 20,0 C 15,0 C 65 % 1024,1 hPa 0,0 l/m 2 min 0 min 683 W/m 16,1 km/h (3 Bft) 93,62 %
29.05.2023 11:24 17,6 C 19,4 C 15,0 C 65 % 1024,2 hPa 0,0 l/m 2 min 0 min 674 W/m 19,3 km/h (3 Bft) 97,87 %
29.05.2023 11:26 17,6 C 19,4 C 15,6 C 65 % 1024,2 hPa 0,0 l/m 2 min 0 min 689 W/m 12,9 km/h (3 Bft) 97,87 %
29.05.2023 11:28 17,6 C 19,4 C 15,6 C 65 % 1024,1 hPa 0,0 l/m 2 min 0 min 691 W/m 19,3 km/h (3 Bft) 95,74 %
29.05.2023 11:30 17,6 C 20,0 C 16,1 C 66 % 1024,1 hPa 0,0 l/m 2 min 0 min 707 W/m 9,7 km/h (2 Bft) 100,00 %
29.05.2023 11:32 17,7 C 20,6 C 16,1 C 66 % 1024,1 hPa 0,0 l/m 2 min 0 min 700 W/m 12,9 km/h (3 Bft) 100,00 %
29.05.2023 11:34 17,8 C 20,6 C 16,7 C 65 % 1024,2 hPa 0,0 l/m 2 min 0 min 735 W/m 16,1 km/h (3 Bft) 97,87 %
29.05.2023 11:36 17,8 C 21,1 C 16,7 C 64 % 1024,2 hPa 0,0 l/m 2 min 0 min 742 W/m 19,3 km/h (3 Bft) 100,00 %
29.05.2023 11:38 17,9 C 21,1 C 16,7 C 65 % 1024,2 hPa 0,0 l/m 2 min 0 min 719 W/m 12,9 km/h (3 Bft) 100,00 %
29.05.2023 11:40 17,9 C 21,1 C 17,2 C 64 % 1024,2 hPa 0,0 l/m 2 min 0 min 741 W/m 16,1 km/h (3 Bft) 97,87 %
29.05.2023 11:42 18,0 C 21,7 C 17,2 C 64 % 1024,2 hPa 0,0 l/m 2 min 0 min 744 W/m 12,9 km/h (3 Bft) 100,00 %
29.05.2023 11:44 18,1 C 21,1 C 17,2 C 64 % 1024,3 hPa 0,0 l/m 2 min 0 min 718 W/m 19,3 km/h (3 Bft) 100,00 %
29.05.2023 11:46 18,1 C 21,7 C 17,2 C 64 % 1024,2 hPa 0,0 l/m 2 min 0 min 762 W/m 16,1 km/h (3 Bft) 97,83 %
29.05.2023 11:48 18,2 C 22,2 C 17,2 C 65 % 1024,3 hPa 0,0 l/m 2 min 0 min 751 W/m 12,9 km/h (3 Bft) 100,00 %
29.05.2023 11:50 18,3 C 21,7 C 17,8 C 64 % 1024,3 hPa 0,0 l/m 2 min 0 min 747 W/m 16,1 km/h (3 Bft) 97,87 %
29.05.2023 11:52 18,3 C 22,8 C 17,2 C 65 % 1024,3 hPa 0,0 l/m 2 min 0 min 765 W/m 9,7 km/h (2 Bft) 95,74 %
29.05.2023 11:54 18,6 C 23,3 C 16,7 C 64 % 1024,2 hPa 0,0 l/m 2 min 0 min 779 W/m 16,1 km/h (3 Bft) 100,00 %
29.05.2023 11:56 18,7 C 22,8 C 16,7 C 64 % 1024,3 hPa 0,0 l/m 2 min 0 min 771 W/m 22,5 km/h (4 Bft) 100,00 %
29.05.2023 11:58 18,7 C 22,8 C 16,7 C 63 % 1024,3 hPa 0,0 l/m 2 min 0 min 763 W/m 16,1 km/h (3 Bft) 95,74 %
29.05.2023 12:00 18,7 C 22,8 C 16,7 C 63 % 1024,2 hPa 0,0 l/m 2 min 0 min 787 W/m 22,5 km/h (4 Bft) 100,00 %
29.05.2023 12:02 18,7 C 22,8 C 16,7 C 64 % 1024,3 hPa 0,0 l/m 2 min 0 min 780 W/m 22,5 km/h (4 Bft) 100,00 %
29.05.2023 12:04 18,7 C 22,8 C 16,1 C 63 % 1024,2 hPa 0,0 l/m 2 min 0 min 777 W/m 25,7 km/h (4 Bft) 95,24 %
29.05.2023 12:07 18,7 C 22,2 C 16,7 C 63 % 1024,2 hPa 0,0 l/m 3 min 0 min 773 W/m 22,5 km/h (4 Bft) 95,24 %
29.05.2023 12:08 18,7 C 22,8 C 16,7 C 63 % 1024,2 hPa 0,0 l/m 1 min 0 min 752 W/m 22,5 km/h (4 Bft) 100,00 %
29.05.2023 12:10 18,7 C 23,3 C 16,7 C 63 % 1024,2 hPa 0,0 l/m 2 min 0 min 792 W/m 19,3 km/h (3 Bft) 97,87 %
29.05.2023 12:12 18,7 C 22,8 C 17,2 C 63 % 1024,2 hPa 0,0 l/m 2 min 0 min 763 W/m 16,1 km/h (3 Bft) 100,00 %
29.05.2023 12:14 18,7 C 22,2 C 17,8 C 63 % 1024,1 hPa 0,0 l/m 2 min 0 min 776 W/m 22,5 km/h (4 Bft) 100,00 %
29.05.2023 12:16 18,7 C 22,8 C 17,8 C 63 % 1024,1 hPa 0,0 l/m 2 min 0 min 792 W/m 19,3 km/h (3 Bft) 97,83 %
29.05.2023 12:18 18,8 C 23,3 C 18,9 C 64 % 1024,1 hPa 0,0 l/m 2 min 0 min 827 W/m 12,9 km/h (3 Bft) 100,00 %
29.05.2023 12:20 18,9 C 23,3 C 19,4 C 63 % 1024,1 hPa 0,0 l/m 2 min 0 min 819 W/m 9,7 km/h (2 Bft) 100,00 %
29.05.2023 12:22 19,0 C 23,3 C 20,0 C 62 % 1024,2 hPa 0,0 l/m 2 min 0 min 844 W/m 25,7 km/h (4 Bft) 97,87 %
29.05.2023 12:24 19,1 C 23,9 C 20,0 C 62 % 1024,2 hPa 0,0 l/m 2 min 0 min 833 W/m 16,1 km/h (3 Bft) 100,00 %
29.05.2023 12:26 19,2 C 23,9 C 20,0 C 62 % 1024,1 hPa 0,0 l/m 2 min 0 min 838 W/m 22,5 km/h (4 Bft) 100,00 %
29.05.2023 12:28 19,2 C 23,3 C 20,0 C 62 % 1024,2 hPa 0,0 l/m 2 min 0 min 869 W/m 12,9 km/h (3 Bft) 97,87 %
29.05.2023 12:30 19,3 C 24,4 C 20,6 C 63 % 1024,1 hPa 0,0 l/m 2 min 0 min 913 W/m 16,1 km/h (3 Bft) 97,83 %
29.05.2023 12:32 19,4 C 24,4 C 20,6 C 61 % 1024,2 hPa 0,0 l/m 2 min 0 min 915 W/m 16,1 km/h (3 Bft) 100,00 %
29.05.2023 12:34 19,5 C 23,9 C 20,0 C 62 % 1024,1 hPa 0,0 l/m 2 min 0 min 856 W/m 12,9 km/h (3 Bft) 95,74 %
29.05.2023 12:36 19,6 C 23,3 C 20,0 C 61 % 1024,1 hPa 0,0 l/m 2 min 0 min 771 W/m 16,1 km/h (3 Bft) 95,74 %
29.05.2023 12:38 19,6 C 22,8 C 20,0 C 61 % 1024,1 hPa 0,0 l/m 2 min 0 min 738 W/m 12,9 km/h (3 Bft) 91,49 %
29.05.2023 12:40 19,6 C 22,8 C 19,4 C 61 % 1024,1 hPa 0,0 l/m 2 min 0 min 681 W/m 12,9 km/h (3 Bft) 93,62 %
29.05.2023 12:42 19,6 C 23,3 C 20,0 C 61 % 1024,1 hPa 0,0 l/m 2 min 0 min 728 W/m 12,9 km/h (3 Bft) 95,74 %
29.05.2023 12:44 19,4 C 22,8 C 19,4 C 60 % 1024,0 hPa 0,0 l/m 2 min 0 min 861 W/m 22,5 km/h (4 Bft) 97,83 %
29.05.2023 12:46 19,4 C 22,8 C 19,4 C 61 % 1024,0 hPa 0,0 l/m 2 min 0 min 765 W/m 19,3 km/h (3 Bft) 95,74 %
29.05.2023 12:48 19,5 C 22,8 C 19,4 C 60 % 1024,0 hPa 0,0 l/m 2 min 0 min 796 W/m 19,3 km/h (3 Bft) 93,62 %
29.05.2023 12:50 19,5 C 22,8 C 19,4 C 61 % 1024,0 hPa 0,0 l/m 2 min 0 min 763 W/m 22,5 km/h (4 Bft) 97,87 %
29.05.2023 12:52 19,6 C 22,8 C 18,9 C 61 % 1024,0 hPa 0,0 l/m 2 min 0 min 744 W/m 16,1 km/h (3 Bft) 93,62 %
29.05.2023 12:54 19,6 C 23,3 C 19,4 C 61 % 1024,0 hPa 0,0 l/m 2 min 0 min 736 W/m 12,9 km/h (3 Bft) 93,62 %
29.05.2023 12:56 19,7 C 23,9 C 18,9 C 60 % 1024,0 hPa 0,0 l/m 2 min 0 min 743 W/m 19,3 km/h (3 Bft) 97,87 %
29.05.2023 12:58 19,6 C 23,9 C 18,3 C 60 % 1024,0 hPa 0,0 l/m 2 min 0 min 753 W/m 22,5 km/h (4 Bft) 91,49 %
29.05.2023 13:00 19,6 C 23,9 C 18,9 C 60 % 1024,1 hPa 0,0 l/m 2 min 0 min 830 W/m 16,1 km/h (3 Bft) 95,65 %
29.05.2023 13:02 19,7 C 24,4 C 20,0 C 60 % 1024,1 hPa 0,0 l/m 2 min 0 min 878 W/m 12,9 km/h (3 Bft) 93,62 %
29.05.2023 13:04 19,8 C 25,0 C 20,6 C 60 % 1024,0 hPa 0,0 l/m 2 min 0 min 871 W/m 12,9 km/h (3 Bft) 93,62 %
29.05.2023 13:06 20,0 C 25,0 C 20,6 C 60 % 1024,0 hPa 0,0 l/m 2 min 0 min 869 W/m 19,3 km/h (3 Bft) 96,61 %
29.05.2023 13:08 20,1 C 25,0 C 21,1 C 60 % 1024,0 hPa 0,0 l/m 2 min 0 min 849 W/m 16,1 km/h (3 Bft) 94,29 %
29.05.2023 13:10 20,1 C 24,4 C 20,6 C 59 % 1024,0 hPa 0,0 l/m 2 min 0 min 844 W/m 16,1 km/h (3 Bft) 91,49 %
29.05.2023 13:12 20,1 C 24,4 C 20,6 C 59 % 1024,0 hPa 0,0 l/m 2 min 0 min 832 W/m 19,3 km/h (3 Bft) 95,65 %
29.05.2023 13:14 20,1 C 24,4 C 20,0 C 59 % 1024,0 hPa 0,0 l/m 2 min 0 min 848 W/m 16,1 km/h (3 Bft) 95,74 %
29.05.2023 13:16 20,2 C 25,0 C 20,0 C 59 % 1023,9 hPa 0,0 l/m 2 min 0 min 853 W/m 16,1 km/h (3 Bft) 95,74 %
29.05.2023 13:18 20,2 C 25,0 C 20,0 C 60 % 1023,9 hPa 0,0 l/m 2 min 0 min 844 W/m 19,3 km/h (3 Bft) 97,87 %
29.05.2023 13:20 20,3 C 24,4 C 20,6 C 60 % 1023,9 hPa 0,0 l/m 2 min 0 min 842 W/m 12,9 km/h (3 Bft) 93,62 %
29.05.2023 13:22 20,3 C 24,4 C 20,6 C 59 % 1023,9 hPa 0,0 l/m 2 min 0 min 844 W/m 16,1 km/h (3 Bft) 95,74 %
29.05.2023 13:24 20,3 C 25,0 C 21,1 C 59 % 1023,8 hPa 0,0 l/m 2 min 0 min 841 W/m 12,9 km/h (3 Bft) 97,87 %
29.05.2023 13:26 20,4 C 25,6 C 21,1 C 60 % 1023,8 hPa 0,0 l/m 2 min 0 min 849 W/m 9,7 km/h (2 Bft) 100,00 %
29.05.2023 13:28 20,5 C 25,0 C 21,1 C 59 % 1023,7 hPa 0,0 l/m 2 min 0 min 862 W/m 19,3 km/h (3 Bft) 96,00 %
29.05.2023 13:30 20,6 C 25,6 C 21,1 C 59 % 1023,7 hPa 0,0 l/m 2 min 0 min 821 W/m 9,7 km/h (2 Bft) 95,74 %
29.05.2023 13:32 20,7 C 26,1 C 21,1 C 60 % 1023,8 hPa 0,0 l/m 2 min 0 min 831 W/m 6,4 km/h (2 Bft) 97,87 %
29.05.2023 13:34 20,8 C 26,1 C 21,7 C 59 % 1023,8 hPa 0,0 l/m 2 min 0 min 832 W/m 9,7 km/h (2 Bft) 93,62 %
29.05.2023 13:36 20,9 C 26,1 C 21,7 C 58 % 1023,7 hPa 0,0 l/m 2 min 0 min 810 W/m 9,7 km/h (2 Bft) 97,87 %
29.05.2023 13:38 20,9 C 26,7 C 21,1 C 58 % 1023,7 hPa 0,0 l/m 2 min 0 min 864 W/m 19,3 km/h (3 Bft) 95,65 %
29.05.2023 13:40 21,1 C 26,7 C 21,1 C 59 % 1023,7 hPa 0,0 l/m 2 min 0 min 876 W/m 16,1 km/h (3 Bft) 93,62 %
29.05.2023 13:42 21,1 C 26,1 C 21,7 C 59 % 1023,7 hPa 0,0 l/m 2 min 0 min 859 W/m 19,3 km/h (3 Bft) 97,87 %
29.05.2023 13:44 21,0 C 26,1 C 21,1 C 58 % 1023,7 hPa 0,0 l/m 2 min 0 min 852 W/m 19,3 km/h (3 Bft) 95,74 %
29.05.2023 13:46 21,0 C 26,1 C 21,1 C 58 % 1023,7 hPa 0,0 l/m 2 min 0 min 833 W/m 22,5 km/h (4 Bft) 93,62 %
29.05.2023 13:48 21,1 C 26,1 C 21,1 C 58 % 1023,7 hPa 0,0 l/m 2 min 0 min 862 W/m 6,4 km/h (2 Bft) 97,87 %
29.05.2023 13:50 21,1 C 26,1 C 20,0 C 58 % 1023,7 hPa 0,0 l/m 2 min 0 min 836 W/m 16,1 km/h (3 Bft) 97,87 %
29.05.2023 13:52 21,1 C 26,1 C 20,0 C 58 % 1023,6 hPa 0,0 l/m 2 min 0 min 820 W/m 19,3 km/h (3 Bft) 97,83 %
29.05.2023 13:54 21,1 C 25,6 C 19,4 C 58 % 1023,7 hPa 0,0 l/m 2 min 0 min 801 W/m 12,9 km/h (3 Bft) 97,87 %
29.05.2023 13:56 21,1 C 26,1 C 18,9 C 59 % 1023,7 hPa 0,0 l/m 2 min 0 min 798 W/m 12,9 km/h (3 Bft) 97,87 %
29.05.2023 13:58 21,1 C 26,7 C 18,3 C 58 % 1023,7 hPa 0,0 l/m 2 min 0 min 865 W/m 12,9 km/h (3 Bft) 95,74 %
29.05.2023 14:00 21,1 C 26,1 C 18,3 C 58 % 1023,7 hPa 0,0 l/m 2 min 0 min 887 W/m 12,9 km/h (3 Bft) 97,87 %
29.05.2023 14:02 21,1 C 25,6 C 17,8 C 58 % 1023,6 hPa 0,0 l/m 2 min 0 min 890 W/m 19,3 km/h (3 Bft) 97,87 %
29.05.2023 14:04 21,0 C 25,6 C 17,8 C 58 % 1023,6 hPa 0,0 l/m 2 min 0 min 884 W/m 25,7 km/h (4 Bft) 95,74 %
29.05.2023 14:06 21,0 C 25,6 C 17,8 C 58 % 1023,7 hPa 0,0 l/m 2 min 0 min 856 W/m 12,9 km/h (3 Bft) 93,10 %
29.05.2023 14:08 21,0 C 26,1 C 17,8 C 59 % 1023,6 hPa 0,0 l/m 2 min 0 min 842 W/m 12,9 km/h (3 Bft) 100,00 %
29.05.2023 14:10 21,1 C 26,1 C 17,8 C 59 % 1023,6 hPa 0,0 l/m 2 min 0 min 806 W/m 19,3 km/h (3 Bft) 93,62 %
29.05.2023 14:12 21,2 C 26,1 C 17,8 C 59 % 1023,6 hPa 0,0 l/m 2 min 0 min 770 W/m 29,0 km/h (5 Bft) 97,87 %
29.05.2023 14:14 21,2 C 25,6 C 17,2 C 57 % 1023,6 hPa 0,0 l/m 2 min 0 min 781 W/m 22,5 km/h (4 Bft) 97,87 %
29.05.2023 14:16 21,1 C 26,1 C 17,2 C 57 % 1023,7 hPa 0,0 l/m 2 min 0 min 812 W/m 16,1 km/h (3 Bft) 95,74 %
29.05.2023 14:18 21,2 C 25,6 C 17,2 C 58 % 1023,7 hPa 0,0 l/m 2 min 0 min 802 W/m 16,1 km/h (3 Bft) 97,87 %
29.05.2023 14:20 21,1 C 25,6 C 17,2 C 58 % 1023,7 hPa 0,0 l/m 2 min 0 min 795 W/m 12,9 km/h (3 Bft) 93,48 %
29.05.2023 14:22 21,1 C 25,6 C 17,2 C 57 % 1023,7 hPa 0,0 l/m 2 min 0 min 813 W/m 12,9 km/h (3 Bft) 95,74 %
29.05.2023 14:24 21,2 C 26,1 C 17,2 C 58 % 1023,7 hPa 0,0 l/m 2 min 0 min 765 W/m 16,1 km/h (3 Bft) 95,74 %
29.05.2023 14:26 21,2 C 26,1 C 17,2 C 58 % 1023,7 hPa 0,0 l/m 2 min 0 min 834 W/m 19,3 km/h (3 Bft) 97,87 %
29.05.2023 14:28 21,2 C 26,1 C 17,2 C 58 % 1023,8 hPa 0,0 l/m 2 min 0 min 847 W/m 19,3 km/h (3 Bft) 95,92 %
29.05.2023 14:30 21,2 C 25,0 C 17,2 C 57 % 1023,7 hPa 0,0 l/m 2 min 0 min 834 W/m 12,9 km/h (3 Bft) 97,87 %
29.05.2023 14:32 21,2 C 26,1 C 17,2 C 58 % 1023,7 hPa 0,0 l/m 2 min 0 min 838 W/m 12,9 km/h (3 Bft) 100,00 %
29.05.2023 14:34 21,2 C 25,6 C 16,7 C 57 % 1023,7 hPa 0,0 l/m 2 min 0 min 850 W/m 22,5 km/h (4 Bft) 95,74 %
29.05.2023 14:36 21,1 C 25,0 C 16,7 C 58 % 1023,7 hPa 0,0 l/m 2 min 0 min 827 W/m 19,3 km/h (3 Bft) 100,00 %
29.05.2023 14:38 21,0 C 25,0 C 16,7 C 58 % 1023,7 hPa 0,0 l/m 2 min 0 min 808 W/m 19,3 km/h (3 Bft) 100,00 %
29.05.2023 14:40 21,0 C 24,4 C 17,2 C 58 % 1023,8 hPa 0,0 l/m 2 min 0 min 806 W/m 25,7 km/h (4 Bft) 95,74 %
29.05.2023 14:42 20,9 C 25,6 C 17,2 C 59 % 1023,7 hPa 0,0 l/m 2 min 0 min 796 W/m 25,7 km/h (4 Bft) 100,00 %
29.05.2023 14:44 21,1 C 26,1 C 17,2 C 58 % 1023,7 hPa 0,0 l/m 2 min 0 min 811 W/m 12,9 km/h (3 Bft) 100,00 %
29.05.2023 14:46 21,1 C 25,6 C 17,2 C 58 % 1023,7 hPa 0,0 l/m 2 min 0 min 732 W/m 25,7 km/h (4 Bft) 97,87 %
29.05.2023 14:48 21,1 C 25,0 C 17,2 C 57 % 1023,7 hPa 0,0 l/m 2 min 0 min 686 W/m 16,1 km/h (3 Bft) 97,87 %
29.05.2023 14:50 21,2 C 25,0 C 17,2 C 58 % 1023,7 hPa 0,0 l/m 2 min 0 min 680 W/m 12,9 km/h (3 Bft) 97,87 %
29.05.2023 14:52 21,2 C 25,0 C 17,2 C 58 % 1023,8 hPa 0,0 l/m 2 min 0 min 671 W/m 22,5 km/h (4 Bft) 95,74 %
29.05.2023 14:54 21,2 C 24,4 C 17,2 C 57 % 1023,7 hPa 0,0 l/m 2 min 0 min 633 W/m 12,9 km/h (3 Bft) 97,83 %
29.05.2023 14:56 21,1 C 23,9 C 17,2 C 57 % 1023,7 hPa 0,0 l/m 2 min 0 min 641 W/m 19,3 km/h (3 Bft) 95,74 %
29.05.2023 14:58 21,1 C 23,9 C 16,7 C 57 % 1023,7 hPa 0,0 l/m 2 min 0 min 676 W/m 22,5 km/h (4 Bft) 95,74 %
29.05.2023 15:00 21,0 C 24,4 C 16,7 C 58 % 1023,7 hPa 0,0 l/m 2 min 0 min 663 W/m 16,1 km/h (3 Bft) 97,87 %
29.05.2023 15:02 21,0 C 24,4 C 16,7 C 58 % 1023,7 hPa 0,0 l/m 2 min 0 min 693 W/m 9,7 km/h (2 Bft) 97,87 %
29.05.2023 15:04 21,1 C 24,4 C 17,2 C 58 % 1023,8 hPa 0,0 l/m 2 min 0 min 700 W/m 22,5 km/h (4 Bft) 95,74 %
29.05.2023 15:06 21,1 C 24,4 C 17,2 C 57 % 1023,7 hPa 0,0 l/m 2 min 0 min 701 W/m 16,1 km/h (3 Bft) 97,87 %
29.05.2023 15:08 21,1 C 23,9 C 16,7 C 57 % 1023,7 hPa 0,0 l/m 2 min 0 min 649 W/m 12,9 km/h (3 Bft) 95,74 %
29.05.2023 15:10 21,1 C 23,9 C 16,7 C 57 % 1023,7 hPa 0,0 l/m 2 min 0 min 664 W/m 12,9 km/h (3 Bft) 91,49 %
29.05.2023 15:12 21,1 C 23,9 C 16,7 C 57 % 1023,8 hPa 0,0 l/m 2 min 0 min 641 W/m 16,1 km/h (3 Bft) 95,74 %
29.05.2023 15:14 21,0 C 23,3 C 16,7 C 57 % 1023,7 hPa 0,0 l/m 2 min 0 min 626 W/m 22,5 km/h (4 Bft) 93,62 %
29.05.2023 15:16 20,9 C 23,3 C 16,7 C 58 % 1023,7 hPa 0,0 l/m 2 min 0 min 598 W/m 22,5 km/h (4 Bft) 93,62 %
29.05.2023 15:18 20,9 C 23,3 C 16,7 C 58 % 1023,8 hPa 0,0 l/m 2 min 0 min 587 W/m 19,3 km/h (3 Bft) 95,74 %
29.05.2023 15:20 20,9 C 23,3 C 16,7 C 58 % 1023,8 hPa 0,0 l/m 2 min 0 min 587 W/m 16,1 km/h (3 Bft) 95,65 %
29.05.2023 15:22 20,9 C 23,3 C 17,2 C 58 % 1023,7 hPa 0,0 l/m 2 min 0 min 575 W/m 12,9 km/h (3 Bft) 93,62 %
29.05.2023 15:24 20,9 C 23,3 C 17,2 C 58 % 1023,8 hPa 0,0 l/m 2 min 0 min 585 W/m 22,5 km/h (4 Bft) 95,74 %
29.05.2023 15:26 20,9 C 23,9 C 16,7 C 57 % 1023,8 hPa 0,0 l/m 2 min 0 min 583 W/m 16,1 km/h (3 Bft) 95,74 %
29.05.2023 15:28 20,9 C 23,9 C 16,7 C 58 % 1023,8 hPa 0,0 l/m 2 min 0 min 593 W/m 16,1 km/h (3 Bft) 93,62 %
29.05.2023 15:30 20,8 C 23,3 C 16,7 C 57 % 1023,6 hPa 0,0 l/m 2 min 0 min 578 W/m 22,5 km/h (4 Bft) 95,74 %
29.05.2023 15:32 20,8 C 23,3 C 16,7 C 58 % 1023,7 hPa 0,0 l/m 2 min 0 min 580 W/m 16,1 km/h (3 Bft) 97,87 %
29.05.2023 15:34 20,8 C 22,8 C 16,7 C 57 % 1023,7 hPa 0,0 l/m 2 min 0 min 577 W/m 12,9 km/h (3 Bft) 95,65 %
29.05.2023 15:36 20,7 C 23,3 C 16,7 C 58 % 1023,7 hPa 0,0 l/m 2 min 0 min 590 W/m 19,3 km/h (3 Bft) 97,87 %
29.05.2023 15:38 20,7 C 22,8 C 16,7 C 58 % 1023,6 hPa 0,0 l/m 2 min 0 min 576 W/m 12,9 km/h (3 Bft) 97,87 %
29.05.2023 15:40 20,7 C 22,8 C 16,7 C 58 % 1023,7 hPa 0,0 l/m 2 min 0 min 552 W/m 9,7 km/h (2 Bft) 95,74 %
29.05.2023 15:42 20,7 C 22,8 C 16,7 C 58 % 1023,7 hPa 0,0 l/m 2 min 0 min 568 W/m 35,4 km/h (5 Bft) 97,87 %
29.05.2023 15:44 20,7 C 22,8 C 16,7 C 57 % 1023,7 hPa 0,0 l/m 2 min 0 min 579 W/m 16,1 km/h (3 Bft) 97,87 %
29.05.2023 15:46 20,7 C 23,3 C 16,7 C 58 % 1023,6 hPa 0,0 l/m 2 min 0 min 581 W/m 16,1 km/h (3 Bft) 95,74 %
29.05.2023 15:48 20,7 C 22,8 C 16,7 C 57 % 1023,6 hPa 0,0 l/m 2 min 0 min 567 W/m 16,1 km/h (3 Bft) 97,83 %
29.05.2023 15:50 20,6 C 22,8 C 16,7 C 57 % 1023,6 hPa 0,0 l/m 2 min 0 min 573 W/m 16,1 km/h (3 Bft) 100,00 %
29.05.2023 15:52 20,7 C 23,3 C 16,7 C 58 % 1023,6 hPa 0,0 l/m 2 min 0 min 596 W/m 9,7 km/h (2 Bft) 95,74 %
29.05.2023 15:54 20,7 C 23,3 C 16,7 C 57 % 1023,6 hPa 0,0 l/m 2 min 0 min 574 W/m 22,5 km/h (4 Bft) 97,87 %
29.05.2023 15:56 20,7 C 23,3 C 16,7 C 57 % 1023,6 hPa 0,0 l/m 2 min 0 min 583 W/m 19,3 km/h (3 Bft) 100,00 %
29.05.2023 15:58 20,7 C 22,8 C 16,7 C 57 % 1023,6 hPa 0,0 l/m 2 min 0 min 570 W/m 16,1 km/h (3 Bft) 95,74 %
29.05.2023 16:00 20,7 C 22,8 C 16,7 C 56 % 1023,6 hPa 0,0 l/m 2 min 0 min 537 W/m 12,9 km/h (3 Bft) 100,00 %
29.05.2023 16:02 20,6 C 22,8 C 16,7 C 57 % 1023,6 hPa 0,0 l/m 2 min 0 min 527 W/m 12,9 km/h (3 Bft) 97,87 %
29.05.2023 16:04 20,7 C 23,3 C 16,7 C 57 % 1023,7 hPa 0,0 l/m 2 min 0 min 531 W/m 16,1 km/h (3 Bft) 97,92 %
29.05.2023 16:06 20,7 C 23,3 C 16,7 C 57 % 1023,6 hPa 0,0 l/m 2 min 0 min 530 W/m 22,5 km/h (4 Bft) 100,00 %
29.05.2023 16:08 20,7 C 22,8 C 16,7 C 57 % 1023,6 hPa 0,0 l/m 2 min 0 min 520 W/m 12,9 km/h (3 Bft) 100,00 %
29.05.2023 16:10 20,7 C 22,8 C 17,2 C 57 % 1023,6 hPa 0,0 l/m 2 min 0 min 538 W/m 16,1 km/h (3 Bft) 97,87 %
29.05.2023 16:12 20,7 C 22,8 C 16,7 C 56 % 1023,6 hPa 0,0 l/m 2 min 0 min 534 W/m 19,3 km/h (3 Bft) 100,00 %
29.05.2023 16:14 20,7 C 22,8 C 16,7 C 56 % 1023,6 hPa 0,0 l/m 2 min 0 min 518 W/m 16,1 km/h (3 Bft) 100,00 %
29.05.2023 16:16 20,7 C 22,8 C 16,7 C 57 % 1023,6 hPa 0,0 l/m 2 min 0 min 512 W/m 16,1 km/h (3 Bft) 97,83 %
29.05.2023 16:18 20,7 C 22,8 C 16,7 C 57 % 1023,6 hPa 0,0 l/m 2 min 0 min 474 W/m 6,4 km/h (2 Bft) 100,00 %
29.05.2023 16:20 20,7 C 22,2 C 16,7 C 57 % 1023,6 hPa 0,0 l/m 2 min 0 min 463 W/m 19,3 km/h (3 Bft) 100,00 %
29.05.2023 16:22 20,6 C 21,7 C 16,7 C 56 % 1023,6 hPa 0,0 l/m 2 min 0 min 471 W/m 22,5 km/h (4 Bft) 97,87 %
29.05.2023 16:24 20,4 C 21,7 C 16,1 C 56 % 1023,6 hPa 0,0 l/m 2 min 0 min 457 W/m 12,9 km/h (3 Bft) 100,00 %
29.05.2023 16:26 20,3 C 21,1 C 16,1 C 56 % 1023,6 hPa 0,0 l/m 2 min 0 min 451 W/m 19,3 km/h (3 Bft) 97,87 %
29.05.2023 16:28 20,2 C 21,7 C 16,1 C 56 % 1023,6 hPa 0,0 l/m 2 min 0 min 458 W/m 25,7 km/h (4 Bft) 97,87 %
29.05.2023 16:30 20,2 C 21,7 C 16,1 C 56 % 1023,5 hPa 0,0 l/m 2 min 0 min 445 W/m 19,3 km/h (3 Bft) 100,00 %
29.05.2023 16:32 20,2 C 22,2 C 16,7 C 57 % 1023,6 hPa 0,0 l/m 2 min 0 min 437 W/m 16,1 km/h (3 Bft) 100,00 %
29.05.2023 16:34 20,2 C 21,7 C 16,7 C 56 % 1023,6 hPa 0,0 l/m 2 min 0 min 426 W/m 19,3 km/h (3 Bft) 95,74 %
29.05.2023 16:36 20,2 C 21,7 C 16,1 C 56 % 1023,6 hPa 0,0 l/m 2 min 0 min 409 W/m 22,5 km/h (4 Bft) 97,87 %
29.05.2023 16:38 20,2 C 21,7 C 16,1 C 57 % 1023,6 hPa 0,0 l/m 2 min 0 min 405 W/m 12,9 km/h (3 Bft) 100,00 %
29.05.2023 16:40 20,2 C 21,1 C 16,1 C 57 % 1023,7 hPa 0,0 l/m 2 min 0 min 419 W/m 16,1 km/h (3 Bft) 98,31 %
29.05.2023 16:42 20,2 C 21,7 C 16,1 C 57 % 1023,6 hPa 0,0 l/m 2 min 0 min 415 W/m 19,3 km/h (3 Bft) 95,74 %
29.05.2023 16:44 20,2 C 22,2 C 16,1 C 57 % 1023,6 hPa 0,0 l/m 2 min 0 min 407 W/m 19,3 km/h (3 Bft) 97,83 %
29.05.2023 16:46 20,2 C 22,2 C 16,1 C 57 % 1023,6 hPa 0,0 l/m 2 min 0 min 418 W/m 12,9 km/h (3 Bft) 97,87 %
29.05.2023 16:48 20,2 C 22,2 C 16,7 C 57 % 1023,6 hPa 0,0 l/m 2 min 0 min 442 W/m 19,3 km/h (3 Bft) 100,00 %
29.05.2023 16:50 20,2 C 22,2 C 16,7 C 57 % 1023,6 hPa 0,0 l/m 2 min 0 min 454 W/m 22,5 km/h (4 Bft) 100,00 %
29.05.2023 16:52 20,2 C 22,2 C 16,7 C 57 % 1023,5 hPa 0,0 l/m 2 min 0 min 467 W/m 12,9 km/h (3 Bft) 93,62 %
29.05.2023 16:54 20,3 C 22,8 C 16,7 C 57 % 1023,5 hPa 0,0 l/m 2 min 0 min 467 W/m 12,9 km/h (3 Bft) 97,14 %
29.05.2023 16:56 20,3 C 22,8 C 16,7 C 57 % 1023,5 hPa 0,0 l/m 2 min 0 min 474 W/m 25,7 km/h (4 Bft) 97,87 %
29.05.2023 16:58 20,4 C 22,8 C 16,7 C 58 % 1023,6 hPa 0,0 l/m 2 min 0 min 453 W/m 16,1 km/h (3 Bft) 94,83 %
29.05.2023 17:00 20,3 C 22,2 C 16,7 C 57 % 1023,4 hPa 0,0 l/m 2 min 0 min 437 W/m 32,2 km/h (5 Bft) 93,62 %
29.05.2023 17:02 20,3 C 22,2 C 16,1 C 56 % 1023,5 hPa 0,0 l/m 2 min 0 min 439 W/m 19,3 km/h (3 Bft) 93,62 %
29.05.2023 17:04 20,3 C 22,2 C 16,7 C 56 % 1023,5 hPa 0,0 l/m 2 min 0 min 421 W/m 12,9 km/h (3 Bft) 91,67 %
29.05.2023 17:06 20,2 C 22,2 C 16,7 C 57 % 1023,5 hPa 0,0 l/m 2 min 0 min 433 W/m 9,7 km/h (2 Bft) 96,55 %
29.05.2023 17:08 20,3 C 22,2 C 16,7 C 56 % 1023,4 hPa 0,0 l/m 2 min 0 min 486 W/m 16,1 km/h (3 Bft) 95,74 %
29.05.2023 17:10 20,3 C 22,2 C 16,1 C 56 % 1023,4 hPa 0,0 l/m 2 min 0 min 483 W/m 12,9 km/h (3 Bft) 91,43 %
29.05.2023 17:12 20,3 C 22,8 C 16,7 C 56 % 1023,4 hPa 0,0 l/m 2 min 0 min 410 W/m 16,1 km/h (3 Bft) 95,74 %
29.05.2023 17:14 20,3 C 23,3 C 16,7 C 56 % 1023,4 hPa 0,0 l/m 2 min 0 min 484 W/m 16,1 km/h (3 Bft) 95,74 %
29.05.2023 17:16 20,4 C 23,9 C 16,7 C 57 % 1023,4 hPa 0,0 l/m 2 min 0 min 524 W/m 6,4 km/h (2 Bft) 93,62 %
29.05.2023 17:18 20,4 C 23,3 C 16,7 C 55 % 1023,4 hPa 0,0 l/m 2 min 0 min 501 W/m 19,3 km/h (3 Bft) 95,74 %
29.05.2023 17:20 20,4 C 23,3 C 16,7 C 56 % 1023,5 hPa 0,0 l/m 2 min 0 min 423 W/m 16,1 km/h (3 Bft) 95,74 %
29.05.2023 17:22 20,4 C 23,3 C 16,7 C 55 % 1023,4 hPa 0,0 l/m 2 min 0 min 433 W/m 16,1 km/h (3 Bft) 93,48 %
29.05.2023 17:24 20,4 C 23,3 C 16,7 C 55 % 1023,5 hPa 0,0 l/m 2 min 0 min 489 W/m 12,9 km/h (3 Bft) 97,87 %
29.05.2023 17:26 20,4 C 23,9 C 16,7 C 55 % 1023,5 hPa 0,0 l/m 2 min 0 min 519 W/m 12,9 km/h (3 Bft) 95,74 %
29.05.2023 17:28 20,4 C 23,3 C 16,7 C 55 % 1023,5 hPa 0,0 l/m 2 min 0 min 427 W/m 12,9 km/h (3 Bft) 91,49 %
29.05.2023 17:30 20,4 C 23,9 C 16,7 C 55 % 1023,6 hPa 0,0 l/m 2 min 0 min 466 W/m 19,3 km/h (3 Bft) 93,62 %
29.05.2023 17:32 20,3 C 23,9 C 16,7 C 54 % 1023,5 hPa 0,0 l/m 2 min 0 min 586 W/m 25,7 km/h (4 Bft) 97,87 %
29.05.2023 17:34 20,4 C 24,4 C 17,2 C 55 % 1023,5 hPa 0,0 l/m 2 min 0 min 579 W/m 12,9 km/h (3 Bft) 95,65 %
29.05.2023 17:36 20,5 C 25,0 C 17,2 C 54 % 1023,5 hPa 0,0 l/m 2 min 0 min 568 W/m 19,3 km/h (3 Bft) 95,74 %
29.05.2023 17:38 20,6 C 25,0 C 17,2 C 54 % 1023,5 hPa 0,0 l/m 2 min 0 min 549 W/m 22,5 km/h (4 Bft) 97,87 %
29.05.2023 17:40 20,6 C 25,0 C 17,2 C 53 % 1023,4 hPa 0,0 l/m 2 min 0 min 546 W/m 19,3 km/h (3 Bft) 93,62 %
29.05.2023 17:42 20,6 C 25,0 C 17,2 C 53 % 1023,5 hPa 0,0 l/m 2 min 0 min 536 W/m 16,1 km/h (3 Bft) 97,87 %
29.05.2023 17:44 20,7 C 25,6 C 17,8 C 53 % 1023,5 hPa 0,0 l/m 2 min 0 min 553 W/m 9,7 km/h (2 Bft) 95,74 %
29.05.2023 17:46 20,7 C 25,0 C 17,2 C 52 % 1023,4 hPa 0,0 l/m 2 min 0 min 508 W/m 19,3 km/h (3 Bft) 93,62 %
29.05.2023 17:48 20,7 C 23,9 C 17,2 C 52 % 1023,4 hPa 0,0 l/m 2 min 0 min 544 W/m 19,3 km/h (3 Bft) 95,65 %
29.05.2023 17:50 20,6 C 24,4 C 17,2 C 52 % 1023,4 hPa 0,0 l/m 2 min 0 min 512 W/m 19,3 km/h (3 Bft) 95,74 %
29.05.2023 17:52 20,6 C 24,4 C 17,2 C 53 % 1023,4 hPa 0,0 l/m 2 min 0 min 495 W/m 25,7 km/h (4 Bft) 93,62 %
29.05.2023 17:54 20,6 C 24,4 C 17,2 C 52 % 1023,4 hPa 0,0 l/m 2 min 0 min 504 W/m 16,1 km/h (3 Bft) 97,87 %
29.05.2023 17:56 20,7 C 25,0 C 17,8 C 52 % 1023,4 hPa 0,0 l/m 2 min 0 min 510 W/m 16,1 km/h (3 Bft) 97,87 %
29.05.2023 17:58 20,8 C 25,0 C 17,8 C 51 % 1023,4 hPa 0,0 l/m 2 min 0 min 482 W/m 19,3 km/h (3 Bft) 95,74 %
29.05.2023 18:00 20,8 C 25,0 C 17,8 C 49 % 1023,3 hPa 0,0 l/m 2 min 0 min 503 W/m 12,9 km/h (3 Bft) 97,87 %
29.05.2023 18:02 20,9 C 25,0 C 17,8 C 49 % 1023,4 hPa 0,0 l/m 2 min 0 min 494 W/m 22,5 km/h (4 Bft) 97,83 %
29.05.2023 18:04 20,9 C 25,0 C 17,2 C 49 % 1023,3 hPa 0,0 l/m 2 min 0 min 484 W/m 12,9 km/h (3 Bft) 93,62 %
29.05.2023 18:07 20,8 C 25,0 C 17,2 C 48 % 1023,3 hPa 0,0 l/m 3 min 0 min 482 W/m 19,3 km/h (3 Bft) 93,62 %
29.05.2023 18:08 20,8 C 25,6 C 17,8 C 49 % 1023,3 hPa 0,0 l/m 1 min 0 min 483 W/m 19,3 km/h (3 Bft) 96,91 %
29.05.2023 18:10 21,0 C 26,1 C 17,8 C 49 % 1023,3 hPa 0,0 l/m 2 min 0 min 482 W/m 9,7 km/h (2 Bft) 95,74 %
29.05.2023 18:12 21,1 C 26,1 C 17,8 C 49 % 1023,4 hPa 0,0 l/m 2 min 0 min 478 W/m 16,1 km/h (3 Bft) 97,87 %
29.05.2023 18:14 21,1 C 26,7 C 18,3 C 50 % 1023,4 hPa 0,0 l/m 2 min 0 min 476 W/m 16,1 km/h (3 Bft) 97,87 %
29.05.2023 18:16 21,2 C 26,1 C 17,8 C 50 % 1023,4 hPa 0,0 l/m 2 min 0 min 470 W/m 9,7 km/h (2 Bft) 95,74 %
29.05.2023 18:18 21,3 C 26,7 C 18,3 C 49 % 1023,4 hPa 0,0 l/m 2 min 0 min 460 W/m 19,3 km/h (3 Bft) 97,87 %
29.05.2023 18:20 21,2 C 25,6 C 17,8 C 49 % 1023,4 hPa 0,0 l/m 2 min 0 min 433 W/m 22,5 km/h (4 Bft) 97,87 %
29.05.2023 18:22 21,3 C 25,6 C 17,8 C 48 % 1023,5 hPa 0,0 l/m 2 min 0 min 442 W/m 22,5 km/h (4 Bft) 97,83 %
29.05.2023 18:24 21,2 C 25,0 C 17,8 C 47 % 1023,4 hPa 0,0 l/m 2 min 0 min 448 W/m 16,1 km/h (3 Bft) 100,00 %
29.05.2023 18:26 21,2 C 25,6 C 17,8 C 47 % 1023,4 hPa 0,0 l/m 2 min 0 min 444 W/m 12,9 km/h (3 Bft) 95,74 %
29.05.2023 18:28 21,2 C 26,1 C 17,8 C 47 % 1023,4 hPa 0,0 l/m 2 min 0 min 440 W/m 16,1 km/h (3 Bft) 97,87 %
29.05.2023 18:30 21,3 C 26,7 C 18,3 C 47 % 1023,4 hPa 0,0 l/m 2 min 0 min 433 W/m 9,7 km/h (2 Bft) 100,00 %
29.05.2023 18:32 21,4 C 26,7 C 18,3 C 46 % 1023,4 hPa 0,0 l/m 2 min 0 min 418 W/m 16,1 km/h (3 Bft) 100,00 %
29.05.2023 18:34 21,5 C 26,7 C 18,3 C 46 % 1023,4 hPa 0,0 l/m 2 min 0 min 417 W/m 16,1 km/h (3 Bft) 97,83 %
29.05.2023 18:36 21,4 C 26,1 C 18,3 C 45 % 1023,4 hPa 0,0 l/m 2 min 0 min 411 W/m 22,5 km/h (4 Bft) 97,87 %
29.05.2023 18:38 21,4 C 26,1 C 18,3 C 46 % 1023,5 hPa 0,0 l/m 2 min 0 min 402 W/m 9,7 km/h (2 Bft) 100,00 %
29.05.2023 18:40 21,4 C 26,1 C 17,8 C 46 % 1023,4 hPa 0,0 l/m 2 min 0 min 396 W/m 19,3 km/h (3 Bft) 100,00 %
29.05.2023 18:42 21,3 C 25,6 C 17,8 C 46 % 1023,4 hPa 0,0 l/m 2 min 0 min 387 W/m 16,1 km/h (3 Bft) 97,87 %
29.05.2023 18:44 21,2 C 25,6 C 17,8 C 45 % 1023,4 hPa 0,0 l/m 2 min 0 min 380 W/m 22,5 km/h (4 Bft) 100,00 %
29.05.2023 18:46 21,1 C 25,6 C 17,8 C 46 % 1023,4 hPa 0,0 l/m 2 min 0 min 378 W/m 19,3 km/h (3 Bft) 100,00 %
29.05.2023 18:48 21,1 C 25,6 C 17,8 C 45 % 1023,4 hPa 0,0 l/m 2 min 0 min 374 W/m 19,3 km/h (3 Bft) 100,00 %
29.05.2023 18:50 21,1 C 25,0 C 17,8 C 45 % 1023,4 hPa 0,0 l/m 2 min 0 min 365 W/m 16,1 km/h (3 Bft) 100,00 %
29.05.2023 18:52 21,0 C 25,6 C 17,8 C 45 % 1023,4 hPa 0,0 l/m 2 min 0 min 367 W/m 12,9 km/h (3 Bft) 100,00 %
29.05.2023 18:54 21,0 C 25,0 C 17,8 C 45 % 1023,4 hPa 0,0 l/m 2 min 0 min 360 W/m 19,3 km/h (3 Bft) 100,00 %
29.05.2023 18:56 20,8 C 23,9 C 17,2 C 45 % 1023,4 hPa 0,0 l/m 2 min 0 min 347 W/m 25,7 km/h (4 Bft) 97,87 %
29.05.2023 18:58 20,7 C 24,4 C 17,2 C 44 % 1023,4 hPa 0,0 l/m 2 min 0 min 354 W/m 16,1 km/h (3 Bft) 100,00 %
29.05.2023 19:00 20,7 C 24,4 C 16,7 C 45 % 1023,4 hPa 0,0 l/m 2 min 0 min 348 W/m 12,9 km/h (3 Bft) 97,87 %
29.05.2023 19:02 20,7 C 24,4 C 16,7 C 44 % 1023,4 hPa 0,0 l/m 2 min 0 min 340 W/m 16,1 km/h (3 Bft) 95,65 %
29.05.2023 19:04 20,7 C 24,4 C 16,7 C 44 % 1023,4 hPa 0,0 l/m 2 min 0 min 335 W/m 16,1 km/h (3 Bft) 97,92 %
29.05.2023 19:06 20,6 C 24,4 C 16,7 C 45 % 1023,4 hPa 0,0 l/m 2 min 0 min 328 W/m 12,9 km/h (3 Bft) 95,74 %
29.05.2023 19:08 20,6 C 24,4 C 16,1 C 45 % 1023,4 hPa 0,0 l/m 2 min 0 min 298 W/m 16,1 km/h (3 Bft) 97,87 %
29.05.2023 19:10 20,6 C 24,4 C 16,1 C 45 % 1023,4 hPa 0,0 l/m 2 min 0 min 292 W/m 12,9 km/h (3 Bft) 97,87 %
29.05.2023 19:12 20,6 C 23,9 C 16,1 C 45 % 1023,3 hPa 0,0 l/m 2 min 0 min 292 W/m 19,3 km/h (3 Bft) 97,87 %
29.05.2023 19:14 20,6 C 23,3 C 16,1 C 44 % 1023,4 hPa 0,0 l/m 2 min 0 min 291 W/m 19,3 km/h (3 Bft) 87,23 %
29.05.2023 19:16 20,6 C 23,9 C 16,1 C 45 % 1023,3 hPa 0,0 l/m 2 min 0 min 258 W/m 19,3 km/h (3 Bft) 95,65 %
29.05.2023 19:18 20,5 C 23,3 C 15,6 C 44 % 1023,4 hPa 0,0 l/m 2 min 0 min 253 W/m 19,3 km/h (3 Bft) 85,11 %
29.05.2023 19:20 20,4 C 22,8 C 15,6 C 44 % 1023,4 hPa 0,0 l/m 2 min 0 min 263 W/m 22,5 km/h (4 Bft) 91,49 %
29.05.2023 19:22 20,3 C 22,2 C 15,6 C 44 % 1023,4 hPa 0,0 l/m 2 min 0 min 253 W/m 12,9 km/h (3 Bft) 76,60 %
29.05.2023 19:24 20,2 C 22,2 C 15,6 C 45 % 1023,3 hPa 0,0 l/m 2 min 0 min 246 W/m 12,9 km/h (3 Bft) 91,49 %
29.05.2023 19:26 20,2 C 21,7 C 15,6 C 46 % 1023,4 hPa 0,0 l/m 2 min 0 min 241 W/m 12,9 km/h (3 Bft) 80,85 %
29.05.2023 19:28 20,1 C 20,6 C 15,6 C 45 % 1023,4 hPa 0,0 l/m 2 min 0 min 239 W/m 6,4 km/h (2 Bft) 85,11 %
29.05.2023 19:30 20,1 C 20,0 C 15,6 C 46 % 1023,4 hPa 0,0 l/m 2 min 0 min 231 W/m 6,4 km/h (2 Bft) 93,48 %
29.05.2023 19:32 20,0 C 20,0 C 15,6 C 46 % 1023,4 hPa 0,0 l/m 2 min 0 min 230 W/m 16,1 km/h (3 Bft) 97,87 %
29.05.2023 19:34 19,9 C 19,4 C 15,6 C 46 % 1023,3 hPa 0,0 l/m 2 min 0 min 235 W/m 9,7 km/h (2 Bft) 89,36 %
29.05.2023 19:36 19,9 C 19,4 C 15,6 C 47 % 1023,4 hPa 0,0 l/m 2 min 0 min 231 W/m 9,7 km/h (2 Bft) 91,49 %
29.05.2023 19:38 19,8 C 19,4 C 15,6 C 47 % 1023,4 hPa 0,0 l/m 2 min 0 min 226 W/m 16,1 km/h (3 Bft) 68,09 %
29.05.2023 19:40 19,8 C 19,4 C 15,6 C 47 % 1023,5 hPa 0,0 l/m 2 min 0 min 217 W/m 22,5 km/h (4 Bft) 85,11 %
29.05.2023 19:42 19,8 C 19,4 C 15,0 C 47 % 1023,5 hPa 0,0 l/m 2 min 0 min 209 W/m 9,7 km/h (2 Bft) 82,61 %
29.05.2023 19:44 19,8 C 19,4 C 15,0 C 47 % 1023,5 hPa 0,0 l/m 2 min 0 min 200 W/m 9,7 km/h (2 Bft) 87,23 %
29.05.2023 19:46 19,7 C 19,4 C 15,0 C 48 % 1023,5 hPa 0,0 l/m 2 min 0 min 141 W/m 25,7 km/h (4 Bft) 85,11 %
29.05.2023 19:48 19,7 C 18,9 C 15,0 C 47 % 1023,5 hPa 0,0 l/m 0 min 0 min 77 W/m 29,0 km/h (5 Bft) 97,87 %
29.05.2023 19:50 19,6 C 18,9 C 15,0 C 47 % 1023,6 hPa 0,0 l/m 0 min 0 min 65 W/m 19,3 km/h (3 Bft) 100,00 %
29.05.2023 19:52 19,6 C 18,9 C 15,0 C 47 % 1023,6 hPa 0,0 l/m 0 min 0 min 63 W/m 12,9 km/h (3 Bft) 100,00 %
29.05.2023 19:54 19,6 C 18,9 C 15,0 C 46 % 1023,6 hPa 0,0 l/m 0 min 0 min 61 W/m 16,1 km/h (3 Bft) 95,74 %
29.05.2023 19:56 19,4 C 18,9 C 15,0 C 46 % 1023,6 hPa 0,0 l/m 0 min 0 min 57 W/m 19,3 km/h (3 Bft) 97,87 %
29.05.2023 19:58 19,4 C 18,9 C 15,0 C 46 % 1023,6 hPa 0,0 l/m 0 min 0 min 55 W/m 12,9 km/h (3 Bft) 93,48 %
29.05.2023 20:00 19,3 C 18,9 C 15,0 C 46 % 1023,6 hPa 0,0 l/m 0 min 0 min 52 W/m 9,7 km/h (2 Bft) 89,36 %
29.05.2023 20:02 19,3 C 18,3 C 15,0 C 46 % 1023,6 hPa 0,0 l/m 0 min 0 min 50 W/m 16,1 km/h (3 Bft) 97,87 %
29.05.2023 20:04 19,2 C 18,3 C 15,0 C 47 % 1023,6 hPa 0,0 l/m 0 min 0 min 49 W/m 16,1 km/h (3 Bft) 95,83 %
29.05.2023 20:06 19,2 C 18,3 C 15,0 C 47 % 1023,6 hPa 0,0 l/m 0 min 0 min 47 W/m 22,5 km/h (4 Bft) 91,49 %
29.05.2023 20:08 19,2 C 18,3 C 15,0 C 47 % 1023,6 hPa 0,0 l/m 0 min 0 min 46 W/m 29,0 km/h (5 Bft) 93,62 %
29.05.2023 20:10 19,1 C 18,3 C 14,4 C 47 % 1023,5 hPa 0,0 l/m 0 min 0 min 45 W/m 19,3 km/h (3 Bft) 95,65 %
29.05.2023 20:12 19,1 C 18,3 C 14,4 C 47 % 1023,5 hPa 0,0 l/m 0 min 0 min 41 W/m 9,7 km/h (2 Bft) 93,62 %
29.05.2023 20:14 19,0 C 18,3 C 14,4 C 47 % 1023,6 hPa 0,0 l/m 0 min 0 min 39 W/m 22,5 km/h (4 Bft) 93,62 %
29.05.2023 20:16 19,0 C 18,3 C 14,4 C 47 % 1023,5 hPa 0,0 l/m 0 min 0 min 36 W/m 6,4 km/h (2 Bft) 95,74 %
29.05.2023 20:18 18,9 C 18,3 C 14,4 C 48 % 1023,5 hPa 0,0 l/m 0 min 0 min 34 W/m 12,9 km/h (3 Bft) 91,49 %
29.05.2023 20:20 18,9 C 17,8 C 14,4 C 47 % 1023,5 hPa 0,0 l/m 0 min 0 min 32 W/m 19,3 km/h (3 Bft) 95,74 %
29.05.2023 20:22 18,8 C 17,8 C 14,4 C 47 % 1023,5 hPa 0,0 l/m 0 min 0 min 31 W/m 16,1 km/h (3 Bft) 95,74 %
29.05.2023 20:24 18,8 C 17,8 C 14,4 C 47 % 1023,6 hPa 0,0 l/m 0 min 0 min 31 W/m 6,4 km/h (2 Bft) 93,48 %
29.05.2023 20:26 18,7 C 17,8 C 14,4 C 47 % 1023,6 hPa 0,0 l/m 0 min 0 min 32 W/m 16,1 km/h (3 Bft) 93,62 %
29.05.2023 20:28 18,7 C 17,8 C 14,4 C 47 % 1023,6 hPa 0,0 l/m 0 min 0 min 32 W/m 16,1 km/h (3 Bft) 95,74 %
29.05.2023 20:30 18,6 C 17,8 C 13,9 C 48 % 1023,5 hPa 0,0 l/m 0 min 0 min 32 W/m 12,9 km/h (3 Bft) 93,62 %
29.05.2023 20:32 18,6 C 17,8 C 13,9 C 48 % 1023,5 hPa 0,0 l/m 0 min 0 min 31 W/m 16,1 km/h (3 Bft) 93,62 %
29.05.2023 20:34 18,6 C 17,8 C 13,9 C 48 % 1023,5 hPa 0,0 l/m 0 min 0 min 30 W/m 12,9 km/h (3 Bft) 95,74 %
29.05.2023 20:36 18,5 C 17,8 C 13,9 C 48 % 1023,5 hPa 0,0 l/m 0 min 0 min 28 W/m 16,1 km/h (3 Bft) 93,62 %
29.05.2023 20:38 18,5 C 17,8 C 13,9 C 48 % 1023,5 hPa 0,0 l/m 0 min 0 min 27 W/m 12,9 km/h (3 Bft) 95,65 %
29.05.2023 20:40 18,4 C 17,2 C 13,9 C 48 % 1023,6 hPa 0,0 l/m 0 min 0 min 26 W/m 19,3 km/h (3 Bft) 95,74 %
29.05.2023 20:42 18,4 C 17,2 C 13,9 C 49 % 1023,5 hPa 0,0 l/m 0 min 0 min 26 W/m 6,4 km/h (2 Bft) 93,62 %
29.05.2023 20:44 18,3 C 17,2 C 13,9 C 49 % 1023,6 hPa 0,0 l/m 0 min 0 min 26 W/m 9,7 km/h (2 Bft) 95,74 %
29.05.2023 20:46 18,3 C 17,2 C 13,9 C 49 % 1023,6 hPa 0,0 l/m 0 min 0 min 26 W/m 19,3 km/h (3 Bft) 97,87 %
29.05.2023 20:48 18,3 C 17,2 C 13,9 C 49 % 1023,6 hPa 0,0 l/m 0 min 0 min 25 W/m 6,4 km/h (2 Bft) 95,74 %
29.05.2023 20:50 18,2 C 17,2 C 13,9 C 50 % 1023,6 hPa 0,0 l/m 0 min 0 min 25 W/m 12,9 km/h (3 Bft) 97,87 %
29.05.2023 20:52 18,2 C 17,2 C 13,9 C 51 % 1023,6 hPa 0,0 l/m 0 min 0 min 25 W/m 9,7 km/h (2 Bft) 93,48 %
29.05.2023 20:54 18,2 C 17,2 C 13,9 C 52 % 1023,6 hPa 0,0 l/m 0 min 0 min 25 W/m 6,4 km/h (2 Bft) 95,74 %
29.05.2023 20:56 18,1 C 17,2 C 13,3 C 52 % 1023,6 hPa 0,0 l/m 0 min 0 min 23 W/m 12,9 km/h (3 Bft) 95,74 %
29.05.2023 20:58 18,1 C 17,2 C 13,3 C 52 % 1023,6 hPa 0,0 l/m 0 min 0 min 23 W/m 9,7 km/h (2 Bft) 93,62 %
29.05.2023 21:00 18,0 C 16,7 C 13,3 C 52 % 1023,6 hPa 0,0 l/m 0 min 0 min 23 W/m 9,7 km/h (2 Bft) 100,00 %
29.05.2023 21:02 17,9 C 16,7 C 13,3 C 53 % 1023,6 hPa 0,0 l/m 0 min 0 min 23 W/m 9,7 km/h (2 Bft) 95,74 %
29.05.2023 21:04 17,9 C 16,7 C 13,3 C 53 % 1023,6 hPa 0,0 l/m 0 min 0 min 23 W/m 6,4 km/h (2 Bft) 97,87 %
29.05.2023 21:06 17,8 C 16,7 C 13,3 C 52 % 1023,7 hPa 0,0 l/m 0 min 0 min 21 W/m 12,9 km/h (3 Bft) 91,49 %
29.05.2023 21:08 17,8 C 16,7 C 13,3 C 52 % 1023,7 hPa 0,0 l/m 0 min 0 min 21 W/m 6,4 km/h (2 Bft) 95,74 %
29.05.2023 21:10 17,8 C 16,7 C 13,3 C 52 % 1023,7 hPa 0,0 l/m 0 min 0 min 21 W/m 16,1 km/h (3 Bft) 97,87 %
29.05.2023 21:12 17,7 C 16,7 C 13,3 C 52 % 1023,7 hPa 0,0 l/m 2 min 0 min 21 W/m 6,4 km/h (2 Bft) 97,87 %
29.05.2023 21:14 17,7 C 16,7 C 13,3 C 53 % 1023,7 hPa 0,0 l/m 2 min 0 min 21 W/m 3,2 km/h (1 Bft) 93,48 %
29.05.2023 21:16 17,7 C 16,7 C 13,3 C 53 % 1023,8 hPa 0,0 l/m 2 min 0 min 21 W/m 6,4 km/h (2 Bft) 93,62 %
29.05.2023 21:18 17,6 C 16,7 C 13,3 C 53 % 1023,8 hPa 0,0 l/m 2 min 0 min 21 W/m 3,2 km/h (1 Bft) 95,74 %
29.05.2023 21:20 17,6 C 16,7 C 12,8 C 54 % 1023,8 hPa 0,0 l/m 0 min 0 min 19 W/m 3,2 km/h (1 Bft) 97,87 %
29.05.2023 21:22 17,5 C 16,1 C 12,8 C 54 % 1023,8 hPa 0,0 l/m 0 min 0 min 16 W/m 9,7 km/h (2 Bft) 95,74 %
29.05.2023 21:24 17,4 C 16,1 C 12,8 C 54 % 1023,8 hPa 0,0 l/m 0 min 0 min 14 W/m 12,9 km/h (3 Bft) 97,87 %
29.05.2023 21:26 17,4 C 16,1 C 12,8 C 55 % 1023,8 hPa 0,0 l/m 0 min 0 min 12 W/m 6,4 km/h (2 Bft) 97,87 %
29.05.2023 21:28 17,3 C 16,1 C 12,8 C 55 % 1023,9 hPa 0,0 l/m 0 min 0 min 11 W/m 16,1 km/h (3 Bft) 97,83 %
29.05.2023 21:30 17,3 C 16,1 C 12,8 C 55 % 1024,0 hPa 0,0 l/m 0 min 0 min 9 W/m 16,1 km/h (3 Bft) 95,74 %
29.05.2023 21:32 17,2 C 16,1 C 12,8 C 56 % 1024,0 hPa 0,0 l/m 0 min 0 min 7 W/m 12,9 km/h (3 Bft) 95,74 %
29.05.2023 21:34 17,2 C 16,1 C 12,8 C 56 % 1024,0 hPa 0,0 l/m 0 min 0 min 5 W/m 12,9 km/h (3 Bft) 97,87 %
29.05.2023 21:36 17,1 C 16,1 C 12,8 C 56 % 1024,0 hPa 0,0 l/m 0 min 0 min 5 W/m 16,1 km/h (3 Bft) 97,87 %
29.05.2023 21:38 17,1 C 16,1 C 12,8 C 56 % 1024,0 hPa 0,0 l/m 0 min 0 min 2 W/m 6,4 km/h (2 Bft) 100,00 %
29.05.2023 21:40 17,0 C 15,6 C 12,2 C 56 % 1024,0 hPa 0,0 l/m 0 min 0 min 0 W/m 6,4 km/h (2 Bft) 100,00 %
29.05.2023 21:42 16,9 C 15,6 C 12,2 C 56 % 1024,0 hPa 0,0 l/m 0 min 0 min 0 W/m 19,3 km/h (3 Bft) 100,00 %
29.05.2023 21:44 16,9 C 15,6 C 12,2 C 56 % 1024,0 hPa 0,0 l/m 0 min 0 min 0 W/m 9,7 km/h (2 Bft) 100,00 %
29.05.2023 21:46 16,8 C 15,6 C 12,2 C 57 % 1024,0 hPa 0,0 l/m 0 min 0 min 0 W/m 12,9 km/h (3 Bft) 97,87 %
29.05.2023 21:48 16,8 C 15,6 C 12,2 C 57 % 1024,0 hPa 0,0 l/m 0 min 0 min 0 W/m 12,9 km/h (3 Bft) 97,87 %
29.05.2023 21:50 16,7 C 15,6 C 12,2 C 57 % 1024,0 hPa 0,0 l/m 0 min 0 min 0 W/m 22,5 km/h (4 Bft) 100,00 %
29.05.2023 21:52 16,7 C 15,6 C 12,2 C 57 % 1024,1 hPa 0,0 l/m 0 min 0 min 0 W/m 12,9 km/h (3 Bft) 100,00 %
29.05.2023 21:54 16,6 C 15,6 C 12,2 C 57 % 1024,1 hPa 0,0 l/m 0 min 0 min 0 W/m 9,7 km/h (2 Bft) 100,00 %
29.05.2023 21:56 16,6 C 15,6 C 12,2 C 57 % 1024,1 hPa 0,0 l/m 0 min 0 min 0 W/m 16,1 km/h (3 Bft) 97,87 %
29.05.2023 21:58 16,5 C 15,6 C 12,2 C 57 % 1024,2 hPa 0,0 l/m 0 min 0 min 0 W/m 9,7 km/h (2 Bft) 100,00 %
29.05.2023 22:00 16,4 C 15,6 C 12,2 C 57 % 1024,2 hPa 0,0 l/m 0 min 0 min 0 W/m 12,9 km/h (3 Bft) 100,00 %
29.05.2023 22:02 16,4 C 15,0 C 11,7 C 57 % 1024,2 hPa 0,0 l/m 0 min 0 min 0 W/m 16,1 km/h (3 Bft) 100,00 %
29.05.2023 22:04 16,3 C 15,0 C 11,7 C 57 % 1024,2 hPa 0,0 l/m 0 min 0 min 0 W/m 16,1 km/h (3 Bft) 97,87 %
29.05.2023 22:06 16,3 C 15,0 C 11,7 C 57 % 1024,3 hPa 0,0 l/m 0 min 0 min 0 W/m 12,9 km/h (3 Bft) 100,00 %
29.05.2023 22:08 16,2 C 15,0 C 11,7 C 57 % 1024,3 hPa 0,0 l/m 0 min 0 min 0 W/m 9,7 km/h (2 Bft) 100,00 %
29.05.2023 22:10 16,2 C 15,0 C 11,7 C 57 % 1024,3 hPa 0,0 l/m 0 min 0 min 0 W/m 6,4 km/h (2 Bft) 100,00 %
29.05.2023 22:12 16,2 C 15,0 C 11,7 C 57 % 1024,3 hPa 0,0 l/m 0 min 0 min 0 W/m 12,9 km/h (3 Bft) 100,00 %
29.05.2023 22:14 16,1 C 15,0 C 11,7 C 58 % 1024,3 hPa 0,0 l/m 0 min 0 min 0 W/m 9,7 km/h (2 Bft) 97,87 %
29.05.2023 22:16 16,1 C 15,0 C 11,7 C 58 % 1024,3 hPa 0,0 l/m 0 min 0 min 0 W/m 12,9 km/h (3 Bft) 100,00 %
29.05.2023 22:18 16,1 C 15,0 C 11,7 C 58 % 1024,3 hPa 0,0 l/m 0 min 0 min 0 W/m 9,7 km/h (2 Bft) 100,00 %
29.05.2023 22:20 16,0 C 15,0 C 11,7 C 58 % 1024,3 hPa 0,0 l/m 0 min 0 min 0 W/m 9,7 km/h (2 Bft) 97,83 %
29.05.2023 22:22 15,9 C 15,0 C 11,7 C 58 % 1024,4 hPa 0,0 l/m 0 min 0 min 0 W/m 16,1 km/h (3 Bft) 97,87 %
29.05.2023 22:24 15,9 C 15,0 C 11,7 C 58 % 1024,4 hPa 0,0 l/m 0 min 0 min 0 W/m 9,7 km/h (2 Bft) 100,00 %
29.05.2023 22:26 15,9 C 15,0 C 11,7 C 58 % 1024,4 hPa 0,0 l/m 0 min 0 min 0 W/m 9,7 km/h (2 Bft) 97,87 %
29.05.2023 22:28 15,8 C 15,0 C 11,1 C 58 % 1024,3 hPa 0,0 l/m 0 min 0 min 0 W/m 12,9 km/h (3 Bft) 100,00 %
29.05.2023 22:30 15,8 C 15,0 C 11,1 C 58 % 1024,4 hPa 0,0 l/m 0 min 0 min 0 W/m 22,5 km/h (4 Bft) 100,00 %
29.05.2023 22:32 15,8 C 14,4 C 11,1 C 58 % 1024,4 hPa 0,0 l/m 0 min 0 min 0 W/m 6,4 km/h (2 Bft) 100,00 %
29.05.2023 22:34 15,7 C 14,4 C 11,1 C 58 % 1024,4 hPa 0,0 l/m 0 min 0 min 0 W/m 6,4 km/h (2 Bft) 97,87 %
29.05.2023 22:36 15,7 C 14,4 C 11,1 C 59 % 1024,4 hPa 0,0 l/m 0 min 0 min 0 W/m 12,9 km/h (3 Bft) 97,87 %
29.05.2023 22:38 15,7 C 14,4 C 11,1 C 59 % 1024,4 hPa 0,0 l/m 0 min 0 min 0 W/m 9,7 km/h (2 Bft) 97,87 %
29.05.2023 22:40 15,6 C 14,4 C 11,1 C 59 % 1024,4 hPa 0,0 l/m 0 min 0 min 0 W/m 6,4 km/h (2 Bft) 97,87 %
29.05.2023 22:42 15,6 C 14,4 C 11,1 C 59 % 1024,5 hPa 0,0 l/m 0 min 0 min 0 W/m 9,7 km/h (2 Bft) 97,87 %
29.05.2023 22:44 15,6 C 14,4 C 11,1 C 60 % 1024,5 hPa 0,0 l/m 0 min 0 min 0 W/m 9,7 km/h (2 Bft) 97,87 %
29.05.2023 22:46 15,4 C 14,4 C 11,1 C 59 % 1024,5 hPa 0,0 l/m 0 min 0 min 0 W/m 6,4 km/h (2 Bft) 97,83 %
29.05.2023 22:48 15,4 C 14,4 C 11,1 C 60 % 1024,5 hPa 0,0 l/m 0 min 0 min 0 W/m 9,7 km/h (2 Bft) 97,87 %
29.05.2023 22:50 15,3 C 14,4 C 11,1 C 60 % 1024,5 hPa 0,0 l/m 0 min 0 min 0 W/m 9,7 km/h (2 Bft) 95,74 %
29.05.2023 22:52 15,3 C 14,4 C 10,6 C 60 % 1024,5 hPa 0,0 l/m 0 min 0 min 0 W/m 6,4 km/h (2 Bft) 97,87 %
29.05.2023 22:54 15,2 C 14,4 C 10,6 C 60 % 1024,4 hPa 0,0 l/m 0 min 0 min 0 W/m 19,3 km/h (3 Bft) 97,87 %
29.05.2023 22:56 15,2 C 13,9 C 10,6 C 61 % 1024,4 hPa 0,0 l/m 0 min 0 min 0 W/m 12,9 km/h (3 Bft) 95,74 %
29.05.2023 22:58 15,1 C 13,9 C 10,6 C 61 % 1024,5 hPa 0,0 l/m 0 min 0 min 0 W/m 12,9 km/h (3 Bft) 95,74 %
29.05.2023 23:00 15,1 C 13,9 C 10,6 C 61 % 1024,5 hPa 0,0 l/m 0 min 0 min 0 W/m 16,1 km/h (3 Bft) 95,65 %
29.05.2023 23:02 15,1 C 13,9 C 10,6 C 61 % 1024,6 hPa 0,0 l/m 0 min 0 min 0 W/m 9,7 km/h (2 Bft) 93,62 %
29.05.2023 23:04 15,0 C 13,9 C 10,6 C 61 % 1024,5 hPa 0,0 l/m 0 min 0 min 0 W/m 12,9 km/h (3 Bft) 95,83 %
29.05.2023 23:06 14,9 C 13,9 C 10,6 C 61 % 1024,5 hPa 0,0 l/m 0 min 0 min 0 W/m 16,1 km/h (3 Bft) 96,61 %
29.05.2023 23:08 14,9 C 13,9 C 10,6 C 61 % 1024,5 hPa 0,0 l/m 0 min 0 min 0 W/m 16,1 km/h (3 Bft) 94,29 %
29.05.2023 23:10 14,9 C 13,9 C 10,6 C 61 % 1024,5 hPa 0,0 l/m 0 min 0 min 0 W/m 9,7 km/h (2 Bft) 91,49 %
29.05.2023 23:12 14,8 C 13,9 C 10,6 C 62 % 1024,6 hPa 0,0 l/m 0 min 0 min 0 W/m 6,4 km/h (2 Bft) 93,62 %
29.05.2023 23:14 14,8 C 13,9 C 10,6 C 62 % 1024,5 hPa 0,0 l/m 0 min 0 min 0 W/m 12,9 km/h (3 Bft) 93,62 %
29.05.2023 23:16 14,8 C 13,9 C 10,6 C 62 % 1024,5 hPa 0,0 l/m 0 min 0 min 0 W/m 12,9 km/h (3 Bft) 93,62 %
29.05.2023 23:18 14,7 C 13,9 C 10,6 C 62 % 1024,6 hPa 0,0 l/m 0 min 0 min 0 W/m 12,9 km/h (3 Bft) 93,62 %
29.05.2023 23:20 14,6 C 13,9 C 10,6 C 62 % 1024,6 hPa 0,0 l/m 0 min 0 min 0 W/m 16,1 km/h (3 Bft) 95,74 %
29.05.2023 23:22 14,6 C 13,9 C 10,6 C 62 % 1024,6 hPa 0,0 l/m 0 min 0 min 0 W/m 12,9 km/h (3 Bft) 89,36 %
29.05.2023 23:24 14,6 C 13,3 C 10,0 C 62 % 1024,6 hPa 0,0 l/m 0 min 0 min 0 W/m 12,9 km/h (3 Bft) 95,74 %
29.05.2023 23:26 14,5 C 13,3 C 10,0 C 62 % 1024,7 hPa 0,0 l/m 0 min 0 min 0 W/m 12,9 km/h (3 Bft) 97,83 %
29.05.2023 23:28 14,4 C 13,3 C 10,0 C 63 % 1024,6 hPa 0,0 l/m 0 min 0 min 0 W/m 9,7 km/h (2 Bft) 97,87 %
29.05.2023 23:30 14,3 C 13,3 C 10,0 C 63 % 1024,6 hPa 0,0 l/m 0 min 0 min 0 W/m 12,9 km/h (3 Bft) 97,87 %
29.05.2023 23:32 14,3 C 13,3 C 10,0 C 63 % 1024,6 hPa 0,0 l/m 0 min 0 min 0 W/m 9,7 km/h (2 Bft) 95,74 %
29.05.2023 23:34 14,3 C 13,3 C 10,0 C 63 % 1024,7 hPa 0,0 l/m 0 min 0 min 0 W/m 16,1 km/h (3 Bft) 97,87 %
29.05.2023 23:36 14,3 C 13,3 C 10,0 C 63 % 1024,7 hPa 0,0 l/m 0 min 0 min 0 W/m 9,7 km/h (2 Bft) 97,87 %
29.05.2023 23:38 14,3 C 13,3 C 10,0 C 63 % 1024,6 hPa 0,0 l/m 0 min 0 min 0 W/m 6,4 km/h (2 Bft) 95,74 %
29.05.2023 23:40 14,3 C 13,3 C 10,0 C 64 % 1024,7 hPa 0,0 l/m 0 min 0 min 0 W/m 6,4 km/h (2 Bft) 97,83 %
29.05.2023 23:42 14,2 C 13,3 C 10,0 C 64 % 1024,7 hPa 0,0 l/m 0 min 0 min 0 W/m 19,3 km/h (3 Bft) 97,87 %
29.05.2023 23:44 14,2 C 13,3 C 10,0 C 64 % 1024,7 hPa 0,0 l/m 0 min 0 min 0 W/m 6,4 km/h (2 Bft) 97,87 %
29.05.2023 23:46 14,1 C 13,3 C 10,0 C 64 % 1024,7 hPa 0,0 l/m 0 min 0 min 0 W/m 6,4 km/h (2 Bft) 97,87 %
29.05.2023 23:48 14,1 C 13,3 C 10,0 C 64 % 1024,7 hPa 0,0 l/m 0 min 0 min 0 W/m 12,9 km/h (3 Bft) 97,87 %
29.05.2023 23:50 14,1 C 13,3 C 10,0 C 64 % 1024,7 hPa 0,0 l/m 0 min 0 min 0 W/m 6,4 km/h (2 Bft) 97,87 %
29.05.2023 23:52 14,0 C 12,8 C 9,4 C 64 % 1024,7 hPa 0,0 l/m 0 min 0 min 0 W/m 6,4 km/h (2 Bft) 97,83 %
29.05.2023 23:54 13,9 C 12,8 C 9,4 C 64 % 1024,8 hPa 0,0 l/m 0 min 0 min 0 W/m 6,4 km/h (2 Bft) 97,87 %
29.05.2023 23:56 13,9 C 12,8 C 9,4 C 64 % 1024,8 hPa 0,0 l/m 0 min 0 min 0 W/m 6,4 km/h (2 Bft) 95,74 %
29.05.2023 23:58 13,9 C 12,8 C 9,4 C 64 % 1024,8 hPa 0,0 l/m 0 min 0 min 0 W/m 9,7 km/h (2 Bft) 97,87 %
_ Min-Zeit 06:36 05:16 06:34 18:58 00:00 - - - - 02:14 19:38
Minimum _ 10,9 C 10,6 C 6,7 C 44 % 1021,0 hPa - - - - 3,2 km/h (1 Bft) 68,09 %
_ Max-Zeit 18:34 13:38 13:34 06:46 23:54 00:00 12:07 00:00 12:32 15:42 00:12
Maximum _ 21,5 C 26,7 C 21,7 C 83 % 1024,8 hPa 0,0 l/m 3 min 0 min 915 W/m 35,4 km/h
O (5 Bft)
100,00 %
Durchschnitt _ 16,7 C 17,9 C 13,2 C 65 % 1023,3 hPa #0,0 l/m #11:58 h #0 min. 431 W/m 14,6 km/h (3 Bft) 96,70 %
© 2023 W. Hausmann